N4ASP-13 Weather Reports


time (UTC)temp
F
wind
direction
speed
knots
gust
knots
rain 1hr
in
rain 24hr
in
rain mn
in
humidity
%
barometer
mb
20260509143832 62 136 2.6 8.7 0.00 0.00 0.00 78 1012.1
20260509143731 62 140 2.6 8.7 0.00 0.00 0.00 78 1012.1
20260509143632 62 172 2.6 8.7 0.00 0.00 0.00 78 1012.1
20260509143531 62 132 2.6 8.7 0.00 0.00 0.00 78 1012.0
20260509143433 62 132 2.6 8.7 0.00 0.00 0.00 78 1012.0
20260509143327 62 146 2.6 8.7 0.00 0.00 0.00 78 1012.1
20260509143228 62 99 2.6 8.7 0.00 0.00 0.00 78 1012.1
20260509143128 62 158 2.6 8.7 0.00 0.00 0.00 77 1012.2
20260509143027 62 158 2.6 8.7 0.00 0.00 0.00 77 1012.2
20260509142927 62 152 2.6 8.7 0.00 0.00 0.00 77 1012.2
20260509142827 62 183 2.6 6.1 0.00 0.00 0.00 77 1012.2
20260509142728 62 173 2.6 6.1 0.00 0.00 0.00 77 1012.3
20260509142629 62 94 2.6 6.1 0.00 0.00 0.00 77 1012.3
20260509142527 62 294 2.6 6.1 0.00 0.00 0.00 77 1012.4
20260509142428 62 111 2.6 7.0 0.00 0.00 0.00 77 1012.3
20260509142328 62 196 2.6 7.0 0.00 0.00 0.00 77 1012.4
20260509142227 62 128 2.6 7.0 0.00 0.00 0.00 78 1012.4
20260509142128 62 129 2.6 7.0 0.00 0.00 0.00 78 1012.4
20260509142028 62 82 2.6 7.0 0.00 0.00 0.00 77 1012.3
20260509141927 62 0 2.6 7.0 0.00 0.00 0.00 78 1012.2
20260509141828 62 136 2.6 7.0 0.00 0.00 0.00 78 1012.2
20260509141728 62 82 2.6 7.0 0.00 0.00 0.00 79 1012.2
20260509141628 62 171 2.6 7.0 0.00 0.00 0.00 78 1012.2
20260509141527 62 170 2.6 7.0 0.00 0.00 0.00 77 1012.2
20260509141428 62 140 1.7 6.1 0.00 0.00 0.00 77 1012.2
20260509141329 62 143 1.7 6.1 0.00 0.00 0.00 77 1012.1
20260509141227 62 145 1.7 6.1 0.00 0.00 0.00 77 1012.2
20260509141129 62 121 1.7 6.1 0.00 0.00 0.00 77 1012.1
20260509141028 62 208 1.7 6.1 0.00 0.00 0.00 78 1012.2
20260509140927 62 202 1.7 6.1 0.00 0.00 0.00 77 1012.2
20260509140829 62 188 1.7 6.1 0.00 0.00 0.00 77 1012.2
20260509140727 62 187 1.7 6.1 0.00 0.00 0.00 78 1012.2
20260509140629 62 214 1.7 6.1 0.00 0.00 0.00 78 1012.1
20260509140528 62 355 2.6 7.0 0.00 0.00 0.00 78 1012.1
20260509140428 62 18 2.6 7.0 0.00 0.00 0.00 78 1012.1
20260509140328 62 321 1.7 7.0 0.00 0.00 0.00 77 1012.1
20260509140227 62 275 1.7 7.0 0.00 0.00 0.00 77 1012.1
20260509140129 62 169 1.7 7.0 0.00 0.00 0.00 77 1012.1
20260509140023 62 123 1.7 7.0 0.00 0.00 0.00 77 1012.1
20260509135924 62 130 1.7 7.0 0.00 0.00 0.00 76 1012.1
20260509135823 62 146 1.7 7.0 0.00 0.00 0.00 76 1012.1
20260509135725 62 150 1.7 7.0 0.00 0.00 0.00 76 1012.0
20260509135624 63 153 1.7 7.0 0.00 0.00 0.00 76 1011.8
20260509135523 63 160 1.7 7.0 0.00 0.00 0.00 77 1011.8
20260509135425 63 134 1.7 7.0 0.00 0.00 0.00 78 1011.8
20260509135323 63 134 1.7 7.0 0.00 0.00 0.00 77 1011.8
20260509135223 62 134 2.6 7.0 0.00 0.00 0.00 78 1011.8
20260509135124 62 130 2.6 7.0 0.00 0.00 0.00 77 1011.8
20260509135024 62 114 2.6 7.8 0.00 0.00 0.00 77 1011.8
20260509134924 62 216 2.6 7.8 0.00 0.00 0.00 77 1011.8
20260509134823 62 172 2.6 7.8 0.00 0.00 0.00 77 1011.7
20260509134724 62 144 3.5 7.8 0.00 0.00 0.00 77 1011.8
20260509134624 62 144 2.6 7.8 0.00 0.00 0.00 77 1011.8
20260509134523 62 198 2.6 7.8 0.00 0.00 0.00 77 1011.8
20260509134423 62 141 2.6 7.8 0.00 0.00 0.00 78 1011.7
20260509134323 62 117 2.6 7.8 0.00 0.00 0.00 78 1011.8
20260509134223 62 151 2.6 7.8 0.00 0.00 0.00 78 1011.7
20260509134125 62 113 2.6 7.8 0.00 0.00 0.00 77 1011.8
20260509134023 62 119 2.6 7.8 0.00 0.00 0.00 78 1011.8
20260509133923 62 202 2.6 7.8 0.00 0.00 0.00 78 1011.8
20260509133824 62 128 2.6 7.8 0.00 0.00 0.00 77 1011.8
20260509133724 62 169 1.7 7.8 0.00 0.00 0.00 79 1011.8
20260509133623 62 163 2.6 7.8 0.00 0.00 0.00 78 1011.7
20260509133525 62 134 2.6 7.8 0.00 0.00 0.00 78 1011.7
20260509133424 62 134 2.6 7.8 0.00 0.00 0.00 78 1011.8
20260509133324 62 137 2.6 6.1 0.00 0.00 0.00 79 1012.0
20260509133223 62 144 2.6 6.1 0.00 0.00 0.00 78 1012.0
20260509133123 62 147 2.6 6.1 0.00 0.00 0.00 79 1012.0
20260509133024 62 145 2.6 6.1 0.00 0.00 0.00 79 1012.1
20260509132924 61 157 2.6 9.6 0.00 0.00 0.00 79 1012.1
20260509132825 61 121 3.5 9.6 0.00 0.00 0.00 79 1012.0
20260509132719 61 121 3.5 9.6 0.00 0.00 0.00 79 1012.1
20260509132619 61 119 3.5 9.6 0.00 0.00 0.00 79 1012.1
20260509132521 61 154 3.5 9.6 0.00 0.00 0.00 79 1012.2
20260509132419 61 165 3.5 9.6 0.00 0.00 0.00 79 1012.1
20260509132320 61 147 3.5 9.6 0.00 0.00 0.00 80 1012.1
20260509132220 61 128 3.5 9.6 0.00 0.00 0.00 80 1012.1
20260509132120 61 136 4.3 9.6 0.00 0.00 0.00 79 1012.2
20260509132020 61 134 4.3 9.6 0.00 0.00 0.00 79 1012.1
20260509131920 61 151 3.5 7.8 0.00 0.00 0.00 79 1012.2
20260509131821 61 190 3.5 7.8 0.00 0.00 0.00 80 1012.3
20260509131720 61 115 3.5 7.8 0.00 0.00 0.00 80 1012.2
20260509131619 61 153 3.5 7.8 0.00 0.00 0.00 80 1012.1
20260509131515 61 171 2.6 7.8 0.00 0.00 0.00 79 1012.2
20260509131313 61 142 2.6 7.8 0.00 0.00 0.00 80 1012.2
20260509131215 61 178 2.6 7.8 0.00 0.00 0.00 79 1012.2
20260509131111 61 136 2.6 7.8 0.00 0.00 0.00 81 1012.2
20260509131008 61 115 2.6 7.8 0.00 0.00 0.00 80 1012.0
20260509130905 61 172 3.5 8.7 0.00 0.00 0.00 81 1012.0
20260509130806 61 155 3.5 8.7 0.00 0.00 0.00 81 1012.1
20260509130707 60 151 3.5 8.7 0.00 0.00 0.00 81 1012.0
20260509130606 60 178 3.5 8.7 0.00 0.00 0.00 80 1012.2
20260509130501 60 179 3.5 8.7 0.00 0.00 0.00 80 1012.3
20260509130400 60 192 3.5 8.7 0.00 0.00 0.00 80 1012.3
20260509130257 60 135 3.5 8.7 0.00 0.00 0.00 80 1012.2
20260509130159 60 120 3.5 8.7 0.00 0.00 0.00 79 1012.3
20260509130056 60 136 3.5 8.7 0.00 0.00 0.00 79 1012.4
20260509125950 60 136 2.6 7.8 0.00 0.00 0.00 80 1012.4
20260509125852 60 149 2.6 7.8 0.00 0.00 0.00 80 1012.4
20260509125752 60 175 2.6 6.1 0.00 0.00 0.00 80 1012.5
20260509125653 60 134 2.6 6.1 0.00 0.00 0.00 80 1012.5
20260509125550 60 150 1.7 6.1 0.00 0.00 0.00 80 1012.4
20260509125450 60 107 1.7 6.1 0.00 0.00 0.00 81 1012.6
20260509125350 60 115 0.9 5.2 0.00 0.00 0.00 80 1012.5
20260509125250 60 123 0.9 5.2 0.00 0.00 0.00 81 1012.5
20260509125150 60 160 0.9 4.3 0.00 0.00 0.00 81 1012.7
20260509125050 60 153 0.9 3.5 0.00 0.00 0.00 81 1012.7
20260509124951 60 130 0.9 2.6 0.00 0.00 0.00 82 1012.7
20260509124848 60 101 0.9 2.6 0.00 0.00 0.00 82 1012.8
20260509124749 59 110 0.9 3.5 0.00 0.00 0.00 82 1012.9
20260509124651 59 180 0.0 3.5 0.00 0.00 0.00 82 1012.9
20260509124549 59 180 0.0 3.5 0.00 0.00 0.00 82 1012.9
20260509124449 59 180 0.9 3.5 0.00 0.00 0.00 82 1012.9
20260509124350 59 180 0.9 3.5 0.00 0.00 0.00 82 1013.0
20260509124244 59 180 0.9 3.5 0.00 0.00 0.00 82 1012.9
20260509124143 59 183 0.9 3.5 0.00 0.00 0.00 82 1013.0
20260509124043 58 184 0.9 3.5 0.00 0.00 0.00 82 1013.0
20260509123942 58 184 0.9 3.5 0.00 0.00 0.00 82 1013.1
20260509123844 58 198 0.9 3.5 0.00 0.00 0.00 82 1013.0
20260509123741 58 211 0.9 3.5 0.00 0.00 0.00 82 1013.1
20260509123642 58 178 0.9 3.5 0.00 0.00 0.00 83 1013.0
20260509123542 58 172 0.9 3.5 0.00 0.00 0.00 83 1013.1
20260509123440 58 171 0.9 3.5 0.00 0.00 0.00 84 1013.0
20260509123337 58 152 0.0 3.5 0.00 0.00 0.00 83 1013.0
20260509123231 58 163 0.0 3.5 0.00 0.00 0.00 84 1012.9
20260509123131 58 288 0.0 1.7 0.00 0.00 0.00 84 1013.1
20260509123031 58 290 0.0 1.7 0.00 0.00 0.00 84 1013.0
20260509122929 58 297 0.0 1.7 0.00 0.00 0.00 84 1013.1
20260509122828 57 297 0.0 1.7 0.00 0.00 0.00 84 1013.1
20260509122723 57 298 0.0 1.7 0.00 0.00 0.00 84 1013.0
20260509122622 57 310 0.0 1.7 0.00 0.00 0.00 85 1013.0
20260509122524 57 61 0.0 1.7 0.00 0.00 0.00 85 1013.0
20260509122425 57 61 0.0 1.7 0.00 0.00 0.00 85 1013.0
20260509122321 57 61 0.0 1.7 0.00 0.00 0.00 85 1013.0
20260509122220 57 61 0.0 1.7 0.00 0.00 0.00 85 1013.0
20260509122120 57 61 0.0 1.7 0.00 0.00 0.00 85 1013.0
20260509122019 57 61 0.0 1.7 0.00 0.00 0.00 86 1013.0
20260509121919 57 57 0.0 2.6 0.00 0.00 0.00 86 1013.0
20260509121816 56 44 0.0 2.6 0.00 0.00 0.00 85 1012.9
20260509121706 56 44 0.0 2.6 0.00 0.00 0.00 86 1012.9
20260509121606 56 46 0.0 2.6 0.00 0.00 0.00 86 1012.9
20260509121506 56 46 0.0 2.6 0.00 0.00 0.00 87 1012.9
20260509121406 56 44 0.0 2.6 0.00 0.00 0.00 86 1012.9
20260509121306 56 317 0.0 2.6 0.00 0.00 0.00 86 1012.9
20260509121200 56 317 0.0 2.6 0.00 0.00 0.00 86 1012.8
20260509121100 56 317 0.0 2.6 0.00 0.00 0.00 87 1012.8
20260509120958 56 317 0.0 2.6 0.00 0.00 0.00 87 1012.9
20260509120900 56 316 0.0 1.7 0.00 0.00 0.00 87 1012.8
20260509120800 55 316 0.0 1.7 0.00 0.00 0.00 88 1012.8
20260509120656 55 316 0.0 1.7 0.00 0.00 0.00 88 1012.9
20260509120553 55 316 0.0 1.7 0.00 0.00 0.00 88 1012.9
20260509120454 55 316 0.0 1.7 0.00 0.00 0.00 88 1013.0
20260509120354 55 315 0.0 1.7 0.00 0.00 0.00 88 1012.8
20260509120253 55 315 0.0 1.7 0.00 0.00 0.00 88 1012.9
20260509120148 55 315 0.0 1.7 0.00 0.00 0.00 88 1012.8
20260509120043 55 319 0.0 1.7 0.00 0.00 0.00 87 1012.9
20260509115943 55 319 0.0 1.7 0.00 0.00 0.00 88 1012.8
20260509115844 54 313 0.0 1.7 0.00 0.00 0.00 88 1012.9
20260509115744 54 355 0.9 2.6 0.00 0.00 0.00 88 1012.9
20260509115643 54 338 0.9 2.6 0.00 0.00 0.00 88 1012.8
20260509115542 54 338 0.9 2.6 0.00 0.00 0.00 88 1013.0
20260509115438 54 336 0.9 2.6 0.00 0.00 0.00 88 1013.0
20260509115339 54 336 0.9 2.6 0.00 0.00 0.00 88 1012.9
20260509115238 54 336 0.9 2.6 0.00 0.00 0.00 88 1012.9
20260509115135 54 336 0.9 2.6 0.00 0.00 0.00 88 1012.8
20260509115037 54 331 0.9 2.6 0.00 0.00 0.00 88 1012.9
20260509114935 54 331 0.9 2.6 0.00 0.00 0.00 88 1012.9
20260509114835 54 331 0.9 2.6 0.00 0.00 0.00 89 1012.9
20260509114732 54 110 0.9 3.5 0.00 0.00 0.00 88 1012.9
20260509114624 54 114 0.9 3.5 0.00 0.00 0.00 88 1012.8
20260509114525 53 179 0.9 3.5 0.00 0.00 0.00 88 1012.8
20260509114423 53 185 0.9 4.3 0.00 0.00 0.00 88 1012.8
20260509114323 53 178 1.7 4.3 0.00 0.00 0.00 88 1012.7
20260509114222 53 168 1.7 4.3 0.00 0.00 0.00 88 1012.7
20260509114115 53 168 1.7 4.3 0.00 0.00 0.00 88 1012.5
20260509114017 53 171 1.7 4.3 0.00 0.00 0.00 88 1012.5
20260509113916 53 171 1.7 4.3 0.00 0.00 0.00 88 1012.5
20260509113815 53 172 1.7 4.3 0.00 0.00 0.00 88 1012.4
20260509113716 53 173 1.7 4.3 0.00 0.00 0.00 88 1012.4
20260509113617 53 197 1.7 4.3 0.00 0.00 0.00 88 1012.4
20260509113512 53 197 1.7 4.3 0.00 0.00 0.00 88 1012.4
20260509113411 53 163 1.7 4.3 0.00 0.00 0.00 88 1012.4
20260509113313 53 164 1.7 4.3 0.00 0.00 0.00 88 1012.4
20260509113210 53 164 1.7 4.3 0.00 0.00 0.00 88 1012.4
20260509113100 53 164 1.7 4.3 0.00 0.00 0.00 88 1012.4
20260509113000 53 150 0.9 4.3 0.00 0.00 0.00 88 1012.5
20260509112900 53 180 0.9 4.3 0.00 0.00 0.00 88 1012.5
20260509112800 53 157 0.9 3.5 0.00 0.00 0.00 88 1012.4
20260509112700 53 155 0.9 3.5 0.00 0.00 0.00 88 1012.5
20260509112559 53 159 0.9 3.5 0.00 0.00 0.00 88 1012.5
20260509112458 53 159 0.9 3.5 0.00 0.00 0.00 88 1012.5
20260509112355 53 163 0.9 3.5 0.00 0.00 0.00 88 1012.4
20260509112255 53 183 0.9 2.6 0.00 0.00 0.00 88 1012.4
20260509112154 53 192 0.0 2.6 0.00 0.00 0.00 87 1012.5
20260509112052 53 193 0.0 2.6 0.00 0.00 0.00 87 1012.5
20260509111952 53 194 0.9 2.6 0.00 0.00 0.00 87 1012.4
20260509111851 53 194 0.9 4.3 0.00 0.00 0.00 87 1012.4
20260509111748 53 194 0.9 4.3 0.00 0.00 0.00 87 1012.5
20260509111647 53 195 0.9 4.3 0.00 0.00 0.00 87 1012.4
20260509111540 53 195 0.9 4.3 0.00 0.00 0.00 87 1012.5
20260509111439 53 195 0.9 4.3 0.00 0.00 0.00 87 1012.4
20260509111338 53 192 0.9 4.3 0.00 0.00 0.00 87 1012.4
20260509111238 53 192 1.7 5.2 0.00 0.00 0.00 87 1012.4
20260509111138 53 192 1.7 5.2 0.00 0.00 0.00 87 1012.3
20260509111037 53 192 1.7 5.2 0.00 0.00 0.00 87 1012.3
20260509110936 53 188 1.7 5.2 0.00 0.00 0.00 87 1012.3
20260509110832 52 180 1.7 5.2 0.00 0.00 0.00 87 1012.2
20260509110734 52 136 1.7 6.1 0.00 0.00 0.00 87 1012.2
20260509110632 52 136 1.7 6.1 0.00 0.00 0.00 87 1012.2
20260509110530 52 153 2.6 6.1 0.00 0.00 0.00 87 1012.2
20260509110429 52 153 2.6 6.1 0.00 0.00 0.00 87 1012.1
20260509110326 52 194 2.6 6.1 0.00 0.00 0.00 87 1012.1
20260509110228 52 155 2.6 6.1 0.00 0.00 0.00 88 1012.1
20260509110125 52 159 2.6 6.1 0.00 0.00 0.00 88 1012.1
20260509110015 52 159 2.6 6.1 0.00 0.00 0.00 88 1012.0
20260509105915 52 150 2.6 6.1 0.00 0.00 0.00 88 1011.8
20260509105816 52 145 2.6 6.1 0.00 0.00 0.00 88 1012.0
20260509105715 52 144 2.6 6.1 0.00 0.00 0.00 88 1012.0
20260509105616 52 140 2.6 6.1 0.00 0.00 0.00 88 1012.0
20260509105511 52 123 2.6 6.1 0.00 0.00 0.00 88 1012.0
20260509105410 52 157 2.6 6.1 0.00 0.00 0.00 88 1012.1
20260509105310 52 140 2.6 6.1 0.00 0.00 0.00 88 1012.1
20260509105210 52 162 2.6 6.1 0.00 0.00 0.00 88 1012.1
20260509105109 52 154 2.6 6.1 0.00 0.00 0.00 88 1012.2
20260509105004 52 175 2.6 6.1 0.00 0.00 0.00 88 1012.2
20260509104903 52 172 2.6 6.1 0.00 0.00 0.00 88 1012.2
20260509104802 52 169 2.6 6.1 0.00 0.00 0.00 88 1012.1
20260509104703 52 194 2.6 6.1 0.00 0.00 0.00 88 1012.1
20260509104604 52 167 2.6 5.2 0.00 0.00 0.00 88 1012.1
20260509104454 52 167 2.6 5.2 0.00 0.00 0.00 88 1012.1
20260509104353 52 167 2.6 5.2 0.00 0.00 0.00 88 1012.1
20260509104254 52 165 2.6 5.2 0.00 0.00 0.00 88 1012.1
20260509104154 52 163 2.6 5.2 0.00 0.00 0.00 88 1012.0
20260509104053 52 178 1.7 5.2 0.00 0.00 0.00 88 1012.0
20260509103952 52 138 1.7 5.2 0.00 0.00 0.00 88 1012.1
20260509103852 52 138 1.7 5.2 0.00 0.00 0.00 88 1012.1
20260509103749 51 140 1.7 5.2 0.00 0.00 0.00 88 1012.2
20260509103650 51 169 0.9 4.3 0.00 0.00 0.00 87 1012.1
20260509103547 51 169 0.9 4.3 0.00 0.00 0.00 87 1012.1
20260509103444 51 155 0.9 3.5 0.00 0.00 0.00 87 1012.1
20260509103344 51 185 0.9 3.5 0.00 0.00 0.00 87 1012.0
20260509103244 51 200 0.9 3.5 0.00 0.00 0.00 87 1012.0
20260509103143 52 235 0.0 1.7 0.00 0.00 0.00 87 1012.0
20260509103042 52 238 0.0 1.7 0.00 0.00 0.00 87 1012.1
20260509102933 52 237 0.9 2.6 0.00 0.00 0.00 87 1012.0
20260509102832 52 222 0.9 2.6 0.00 0.00 0.00 87 1012.1
20260509102731 52 222 0.9 2.6 0.00 0.00 0.00 87 1012.0
20260509102631 52 223 0.0 2.6 0.00 0.00 0.00 86 1012.0
20260509102532 52 223 0.9 2.6 0.00 0.00 0.00 86 1012.0
20260509102432 52 223 0.9 2.6 0.00 0.00 0.00 86 1011.8
20260509102328 52 223 0.0 2.6 0.00 0.00 0.00 86 1012.0
20260509102230 52 223 0.0 2.6 0.00 0.00 0.00 86 1011.8
20260509102127 52 222 0.0 2.6 0.00 0.00 0.00 86 1011.8
20260509102026 52 221 0.0 2.6 0.00 0.00 0.00 86 1011.8
20260509101924 52 244 0.0 2.6 0.00 0.00 0.00 86 1011.7
20260509101823 52 244 0.0 2.6 0.00 0.00 0.00 86 1011.7
20260509101723 52 244 0.0 2.6 0.00 0.00 0.00 86 1011.7
20260509101622 52 244 0.9 3.5 0.00 0.00 0.00 86 1011.7
20260509101520 52 242 0.9 4.3 0.00 0.00 0.00 86 1011.7
20260509101410 52 242 0.9 4.3 0.00 0.00 0.00 86 1011.8
20260509101310 52 242 0.9 4.3 0.00 0.00 0.00 86 1011.7
20260509101211 52 242 0.9 4.3 0.00 0.00 0.00 86 1011.6
20260509101111 52 242 0.9 4.3 0.00 0.00 0.00 86 1011.6
20260509101009 52 165 0.9 4.3 0.00 0.00 0.00 86 1011.6
20260509100905 52 165 0.9 4.3 0.00 0.00 0.00 86 1011.6
20260509100806 52 165 0.9 4.3 0.00 0.00 0.00 86 1011.6
20260509100705 52 165 0.9 4.3 0.00 0.00 0.00 86 1011.7
20260509100605 52 163 0.0 3.5 0.00 0.00 0.00 85 1011.7
20260509100503 52 161 0.9 3.5 0.00 0.00 0.00 85 1011.6
20260509100402 52 161 0.9 3.5 0.00 0.00 0.00 85 1011.6
20260509100301 52 161 0.0 3.5 0.00 0.00 0.00 85 1011.6
20260509100159 52 161 0.0 3.5 0.00 0.00 0.00 85 1011.6
20260509100059 52 161 0.0 1.7 0.00 0.00 0.00 85 1011.6
20260509095957 52 161 0.0 1.7 0.00 0.00 0.00 85 1011.6
20260509095851 52 160 0.0 1.7 0.00 0.00 0.00 85 1011.6
20260509095751 52 161 0.0 1.7 0.00 0.00 0.00 85 1011.6
20260509095652 52 161 0.0 1.7 0.00 0.00 0.00 85 1011.6
20260509095550 52 161 0.0 1.7 0.00 0.00 0.00 85 1011.6
20260509095447 52 161 0.0 1.7 0.00 0.00 0.00 85 1011.6
20260509095348 52 160 0.0 1.7 0.00 0.00 0.00 85 1011.6
20260509095246 52 160 0.0 1.7 0.00 0.00 0.00 85 1011.6
20260509095146 52 160 0.0 1.7 0.00 0.00 0.00 85 1011.6
20260509095044 52 160 0.0 1.7 0.00 0.00 0.00 84 1011.6
20260509094941 52 160 0.0 1.7 0.00 0.00 0.00 84 1011.6
20260509094838 52 160 0.0 1.7 0.00 0.00 0.00 84 1011.7
20260509094735 52 160 0.0 1.7 0.00 0.00 0.00 84 1011.6
20260509094636 52 160 0.0 1.7 0.00 0.00 0.00 84 1011.6
20260509094535 52 160 0.0 1.7 0.00 0.00 0.00 84 1011.5
20260509094436 53 160 0.0 1.7 0.00 0.00 0.00 84 1011.5
20260509094330 53 160 0.0 1.7 0.00 0.00 0.00 84 1011.5
20260509094230 53 160 0.0 1.7 0.00 0.00 0.00 84 1011.4
20260509094130 53 160 0.9 3.5 0.00 0.00 0.00 84 1011.5
20260509094027 53 160 0.9 3.5 0.00 0.00 0.00 84 1011.5
20260509093926 53 160 0.9 3.5 0.00 0.00 0.00 84 1011.4
20260509093826 53 160 0.9 3.5 0.00 0.00 0.00 84 1011.4
20260509093724 53 159 0.9 3.5 0.00 0.00 0.00 84 1011.4
20260509093624 53 159 0.9 4.3 0.00 0.00 0.00 84 1011.5
20260509093523 53 159 0.9 4.3 0.00 0.00 0.00 84 1011.4
20260509093419 53 159 0.9 4.3 0.00 0.00 0.00 84 1011.5
20260509093321 53 159 0.9 4.3 0.00 0.00 0.00 84 1011.6
20260509093217 53 159 0.9 4.3 0.00 0.00 0.00 84 1011.6
20260509093117 53 159 0.9 4.3 0.00 0.00 0.00 84 1011.6
20260509093016 53 159 0.9 4.3 0.00 0.00 0.00 84 1011.6
20260509092919 53 153 0.0 4.3 0.00 0.00 0.00 84 1011.6
20260509092804 53 153 0.0 4.3 0.00 0.00 0.00 84 1011.6
20260509092704 53 153 0.0 4.3 0.00 0.00 0.00 84 1011.6
20260509092603 53 242 0.0 0.0 0.00 0.00 0.00 84 1011.6
20260509092504 53 259 0.0 0.0 0.00 0.00 0.00 83 1011.6
20260509092404 53 263 0.0 0.0 0.00 0.00 0.00 83 1011.7
20260509092300 53 263 0.0 0.0 0.00 0.00 0.00 83 1011.8
20260509092157 53 263 0.0 0.0 0.00 0.00 0.00 83 1012.0
20260509092057 53 263 0.0 0.0 0.00 0.00 0.00 83 1012.0
20260509091956 53 265 0.0 0.0 0.00 0.00 0.00 83 1012.0
20260509091857 53 265 0.0 0.0 0.00 0.00 0.00 83 1012.1
20260509091757 53 265 0.0 0.0 0.00 0.00 0.00 83 1012.0
20260509091655 53 226 0.0 0.0 0.00 0.00 0.00 83 1012.0
20260509091554 53 227 0.0 0.0 0.00 0.00 0.00 83 1012.1
20260509091454 53 227 0.0 0.9 0.00 0.00 0.00 83 1012.1
20260509091352 53 227 0.0 0.9 0.00 0.00 0.00 83 1012.0
20260509091245 53 227 0.0 0.9 0.00 0.00 0.00 83 1011.8
20260509091146 53 227 0.0 0.9 0.00 0.00 0.00 83 1011.8
20260509091046 53 227 0.0 0.9 0.00 0.00 0.00 83 1011.8
20260509090943 53 227 0.0 0.9 0.00 0.00 0.00 83 1011.8
20260509090841 53 227 0.0 2.6 0.00 0.00 0.00 83 1011.7
20260509090742 53 226 0.0 2.6 0.00 0.00 0.00 83 1011.8
20260509090639 53 229 0.0 2.6 0.00 0.00 0.00 83 1011.8
20260509090540 53 188 0.0 2.6 0.00 0.00 0.00 83 1011.8
20260509090438 53 188 0.0 2.6 0.00 0.00 0.00 83 1011.8
20260509090336 53 188 0.0 2.6 0.00 0.00 0.00 83 1011.8
20260509090233 53 188 0.9 2.6 0.00 0.00 0.00 83 1011.8
20260509090129 53 188 0.9 2.6 0.00 0.00 0.00 83 1011.7
20260509090029 53 188 0.9 2.6 0.00 0.00 0.00 83 1011.7
20260509085929 53 188 0.9 2.6 0.00 0.00 0.00 83 1011.7
20260509085829 53 188 0.9 1.7 0.00 0.00 0.00 83 1011.7
20260509085722 53 188 0.9 1.7 0.00 0.00 0.00 83 1011.7
20260509085623 53 188 0.9 1.7 0.00 0.00 0.00 83 1011.7
20260509085523 53 188 0.9 1.7 0.00 0.00 0.00 83 1011.7
20260509085421 53 188 0.9 4.3 0.00 0.00 0.00 83 1011.7
20260509085320 53 192 0.9 4.3 0.00 0.00 0.00 83 1011.7
20260509085219 53 192 0.9 4.3 0.00 0.00 0.00 83 1011.7
20260509085118 53 192 0.9 4.3 0.00 0.00 0.00 83 1011.7
20260509085017 53 192 0.9 4.3 0.00 0.00 0.00 83 1011.8
20260509084915 53 192 0.9 4.3 0.00 0.00 0.00 83 1011.7
20260509084814 53 192 0.9 4.3 0.00 0.00 0.00 83 1011.8
20260509084708 53 192 0.9 4.3 0.00 0.00 0.00 83 1011.8
20260509084610 53 192 0.9 4.3 0.00 0.00 0.00 83 1011.8
20260509084508 53 185 0.9 4.3 0.00 0.00 0.00 83 1011.8
20260509084410 53 208 0.9 4.3 0.00 0.00 0.00 83 1011.8
20260509084307 53 210 0.9 4.3 0.00 0.00 0.00 82 1011.7
20260509084159 53 210 0.9 4.3 0.00 0.00 0.00 82 1011.7
20260509084100 53 269 0.9 4.3 0.00 0.00 0.00 82 1011.7
20260509083958 53 145 0.9 4.3 0.00 0.00 0.00 82 1011.7
20260509083858 53 145 0.9 4.3 0.00 0.00 0.00 82 1011.7
20260509083756 53 145 1.7 4.3 0.00 0.00 0.00 82 1011.8
20260509083652 53 145 1.7 4.3 0.00 0.00 0.00 82 1011.8
20260509083548 53 145 1.7 4.3 0.00 0.00 0.00 82 1011.8
20260509083449 53 145 1.7 4.3 0.00 0.00 0.00 82 1012.0
20260509083351 53 146 0.9 4.3 0.00 0.00 0.00 82 1011.8
20260509083250 53 155 0.9 4.3 0.00 0.00 0.00 82 1011.8
20260509083145 53 155 0.9 4.3 0.00 0.00 0.00 82 1011.8
20260509083046 53 155 0.9 4.3 0.00 0.00 0.00 82 1012.0
20260509082945 53 155 0.9 3.5 0.00 0.00 0.00 82 1012.0
20260509082844 53 155 0.9 2.6 0.00 0.00 0.00 82 1012.0
20260509082744 53 155 0.0 2.6 0.00 0.00 0.00 81 1012.0
20260509082637 53 154 0.0 2.6 0.00 0.00 0.00 81 1012.0
20260509082537 53 154 0.0 1.7 0.00 0.00 0.00 81 1012.1
20260509082437 53 154 0.0 1.7 0.00 0.00 0.00 81 1012.1
20260509082335 53 155 0.0 2.6 0.00 0.00 0.00 81 1012.1
20260509082234 53 155 0.9 2.6 0.00 0.00 0.00 81 1012.2
20260509082132 53 155 0.9 2.6 0.00 0.00 0.00 81 1012.2
20260509082031 53 155 0.9 2.6 0.00 0.00 0.00 81 1012.2
20260509081931 53 155 0.9 2.6 0.00 0.00 0.00 81 1012.2
20260509081830 53 155 0.9 2.6 0.00 0.00 0.00 81 1012.3
20260509081727 53 155 0.9 2.6 0.00 0.00 0.00 81 1012.3
20260509081626 53 155 0.9 2.6 0.00 0.00 0.00 81 1012.3
20260509081526 53 155 0.9 2.6 0.00 0.00 0.00 81 1012.4
20260509081423 53 155 0.9 2.6 0.00 0.00 0.00 81 1012.3
20260509081324 53 111 0.9 2.6 0.00 0.00 0.00 80 1012.3
20260509081222 53 103 0.0 2.6 0.00 0.00 0.00 80 1012.3
20260509081112 53 103 0.0 2.6 0.00 0.00 0.00 80 1012.4
20260509081011 53 101 0.0 7.0 0.00 0.00 0.00 80 1012.3
20260509080911 53 355 0.0 7.0 0.00 0.00 0.00 80 1012.4
20260509080812 53 355 0.0 7.0 0.00 0.00 0.00 80 1012.3
20260509080712 53 355 0.0 7.0 0.00 0.00 0.00 81 1012.4
20260509080605 53 355 0.9 7.0 0.00 0.00 0.00 80 1012.4
20260509080504 53 355 0.9 7.0 0.00 0.00 0.00 80 1012.4
20260509080406 53 355 0.9 7.0 0.00 0.00 0.00 80 1012.4
20260509080305 53 355 0.9 7.0 0.00 0.00 0.00 80 1012.5
20260509080205 53 355 1.7 7.0 0.00 0.00 0.00 80 1012.5
20260509080100 53 355 1.7 7.0 0.00 0.00 0.00 80 1012.5
20260509080002 53 355 1.7 7.8 0.00 0.00 0.00 81 1012.5
20260509075900 53 355 1.7 7.8 0.00 0.00 0.00 80 1012.4
20260509075802 53 355 1.7 7.8 0.00 0.00 0.00 80 1012.4
20260509075659 53 147 2.6 7.8 0.00 0.00 0.00 81 1012.4
20260509075551 53 147 2.6 7.8 0.00 0.00 0.00 80 1012.4
20260509075450 53 150 2.6 7.8 0.00 0.00 0.00 81 1012.5
20260509075351 53 147 2.6 7.8 0.00 0.00 0.00 80 1012.5
20260509075252 53 132 2.6 7.8 0.00 0.00 0.00 80 1012.5
20260509075149 53 165 2.6 7.8 0.00 0.00 0.00 81 1012.5
20260509075045 53 124 2.6 7.8 0.00 0.00 0.00 81 1012.4
20260509074944 53 182 2.6 7.8 0.00 0.00 0.00 80 1012.5
20260509074845 53 175 2.6 7.8 0.00 0.00 0.00 81 1012.4
20260509074745 53 180 2.6 7.8 0.00 0.00 0.00 81 1012.4
20260509074644 53 173 2.6 7.8 0.00 0.00 0.00 80 1012.4
20260509074540 53 194 2.6 7.8 0.00 0.00 0.00 80 1012.5
20260509074440 53 164 2.6 7.8 0.00 0.00 0.00 81 1012.5
20260509074339 53 189 1.7 7.8 0.00 0.00 0.00 81 1012.4
20260509074239 53 166 1.7 7.8 0.00 0.00 0.00 81 1012.5
20260509074138 53 171 1.7 7.8 0.00 0.00 0.00 81 1012.4
20260509074029 53 171 1.7 7.8 0.00 0.00 0.00 81 1012.4
20260509073930 53 211 0.9 6.1 0.00 0.00 0.00 81 1012.3
20260509073829 53 153 0.9 6.1 0.00 0.00 0.00 81 1012.4
20260509073729 53 160 0.9 4.3 0.00 0.00 0.00 81 1012.4
20260509073628 53 171 0.9 4.3 0.00 0.00 0.00 81 1012.4
20260509073523 53 177 0.9 4.3 0.00 0.00 0.00 81 1012.5
20260509073421 53 177 0.9 4.3 0.00 0.00 0.00 81 1012.5
20260509073321 53 178 1.7 4.3 0.00 0.00 0.00 81 1012.5
20260509073220 53 178 1.7 4.3 0.00 0.00 0.00 81 1012.5
20260509073122 54 178 1.7 4.3 0.00 0.00 0.00 81 1012.5
20260509073016 54 178 1.7 4.3 0.00 0.00 0.00 81 1012.5
20260509072915 53 178 1.7 7.8 0.00 0.00 0.00 81 1012.5
20260509072816 54 167 1.7 7.8 0.00 0.00 0.00 81 1012.4
20260509072714 54 163 1.7 7.8 0.00 0.00 0.00 81 1012.4
20260509072616 54 155 2.6 7.8 0.00 0.00 0.00 81 1012.4
20260509072504 54 154 2.6 7.8 0.00 0.00 0.00 81 1012.5
20260509072406 54 155 2.6 7.8 0.00 0.00 0.00 81 1012.5
20260509072306 54 154 2.6 7.8 0.00 0.00 0.00 81 1012.4
20260509072205 54 142 2.6 7.8 0.00 0.00 0.00 81 1012.4
20260509072106 54 142 2.6 7.8 0.00 0.00 0.00 81 1012.5
20260509072000 54 173 2.6 7.0 0.00 0.00 0.00 81 1012.5
20260509071901 54 170 2.6 7.8 0.00 0.00 0.00 81 1012.3
20260509071800 54 244 2.6 7.8 0.00 0.00 0.00 81 1012.4
20260509071659 54 136 2.6 7.8 0.00 0.00 0.00 81 1012.4
20260509071600 54 176 2.6 7.8 0.00 0.00 0.00 81 1012.4
20260509071454 54 172 2.6 7.8 0.00 0.00 0.00 81 1012.5
20260509071353 54 171 2.6 7.8 0.00 0.00 0.00 81 1012.5
20260509071253 54 171 3.5 7.8 0.00 0.00 0.00 81 1012.5
20260509071153 54 163 3.5 7.8 0.00 0.00 0.00 81 1012.5
20260509071053 54 190 3.5 7.8 0.00 0.00 0.00 81 1012.5
20260509070944 54 161 2.6 7.8 0.00 0.00 0.00 81 1012.5
20260509070842 54 144 2.6 6.1 0.00 0.00 0.00 81 1012.5
20260509070743 54 161 2.6 6.1 0.00 0.00 0.00 81 1012.6
20260509070643 54 163 2.6 6.1 0.00 0.00 0.00 81 1012.6
20260509070544 54 163 2.6 6.1 0.00 0.00 0.00 81 1012.6
20260509070440 54 119 2.6 6.1 0.00 0.00 0.00 81 1012.7
20260509070337 54 175 2.6 6.1 0.00 0.00 0.00 80 1012.7
20260509070236 54 135 2.6 6.1 0.00 0.00 0.00 80 1012.8
20260509070137 54 138 2.6 6.1 0.00 0.00 0.00 80 1012.8
20260509070038 54 157 2.6 7.0 0.00 0.00 0.00 80 1012.8
20260509065931 54 138 2.6 7.0 0.00 0.00 0.00 80 1012.8
20260509065830 54 169 2.6 7.0 0.00 0.00 0.00 80 1012.8
20260509065731 55 134 2.6 7.0 0.00 0.00 0.00 80 1012.8
20260509065632 55 160 1.7 7.0 0.00 0.00 0.00 80 1012.7
20260509065532 55 168 1.7 7.0 0.00 0.00 0.00 79 1012.8
20260509065420 55 156 2.6 7.0 0.00 0.00 0.00 79 1012.9
20260509065321 55 152 2.6 7.0 0.00 0.00 0.00 79 1012.9
20260509065221 55 151 2.6 7.0 0.00 0.00 0.00 79 1012.9
20260509065120 55 167 2.6 7.0 0.00 0.00 0.00 80 1012.9
20260509065021 55 169 2.6 7.0 0.00 0.00 0.00 80 1012.9
20260509064922 55 177 2.6 7.0 0.00 0.00 0.00 80 1013.0
20260509064820 55 190 3.5 7.8 0.00 0.00 0.00 80 1013.0
20260509064717 55 134 3.5 7.8 0.00 0.00 0.00 80 1013.0
20260509064618 55 134 3.5 7.8 0.00 0.00 0.00 79 1012.9
20260509064515 55 174 3.5 7.8 0.00 0.00 0.00 79 1012.9
20260509064410 55 164 2.6 7.8 0.00 0.00 0.00 80 1012.9
20260509064308 55 146 2.6 7.8 0.00 0.00 0.00 80 1013.0
20260509064208 55 167 2.6 7.8 0.00 0.00 0.00 80 1013.0
20260509064110 55 168 2.6 7.8 0.00 0.00 0.00 80 1013.0
20260509064027 55 184 2.6 7.8 0.00 0.00 0.00 80 1013.0
20260509063900 55 184 2.6 7.8 0.00 0.00 0.00 80 1013.1
20260509063800 55 130 2.6 6.1 0.00 0.00 0.00 80 1013.1
20260509063700 55 144 2.6 6.1 0.00 0.00 0.00 80 1013.2
20260509063559 55 142 2.6 6.1 0.00 0.00 0.00 80 1013.3
20260509063459 55 142 2.6 6.1 0.00 0.00 0.00 80 1013.2
20260509063357 55 148 2.6 6.1 0.00 0.00 0.00 80 1013.2
20260509063257 55 146 2.6 6.1 0.00 0.00 0.00 80 1013.3
20260509063155 55 154 2.6 7.0 0.00 0.00 0.00 80 1013.3
20260509063056 55 156 3.5 7.0 0.00 0.00 0.00 80 1013.3
20260509062953 55 153 2.6 7.0 0.00 0.00 0.00 80 1013.3
20260509062848 55 130 2.6 7.0 0.00 0.00 0.00 79 1013.4
20260509062748 55 165 3.5 7.0 0.00 0.00 0.00 79 1013.3
20260509062648 55 166 2.6 9.6 0.00 0.00 0.00 79 1013.4
20260509062547 55 161 3.5 9.6 0.00 0.00 0.00 79 1013.4
20260509062447 55 128 2.6 9.6 0.00 0.00 0.00 79 1013.4
20260509062346 55 165 2.6 9.6 0.00 0.00 0.00 79 1013.4
20260509062246 55 166 2.6 9.6 0.00 0.00 0.00 79 1013.3
20260509062142 55 192 2.6 9.6 0.00 0.00 0.00 79 1013.4
20260509062046 55 210 2.6 9.6 0.00 0.00 0.00 79 1013.4
20260509061944 55 183 2.6 9.6 0.00 0.00 0.00 79 1013.3
20260509061844 55 161 2.6 9.6 0.00 0.00 0.00 79 1013.4
20260509061742 55 171 2.6 9.6 0.00 0.00 0.00 79 1013.3
20260509061644 55 169 2.6 7.0 0.00 0.00 0.00 79 1013.4
20260509061542 55 169 2.6 7.0 0.00 0.00 0.00 79 1013.3
20260509061441 55 161 2.6 7.8 0.00 0.00 0.00 79 1013.3
20260509061340 55 176 2.6 7.8 0.00 0.00 0.00 79 1013.4
20260509061240 55 125 2.6 7.8 0.00 0.00 0.00 79 1013.3
20260509061142 55 166 2.6 7.8 0.00 0.00 0.00 79 1013.4
20260509061038 55 167 2.6 7.8 0.00 0.00 0.00 79 1013.4
20260509060939 55 180 2.6 7.8 0.00 0.00 0.00 79 1013.4
20260509060838 55 134 2.6 7.8 0.00 0.00 0.00 79 1013.4
20260509060740 55 119 2.6 7.8 0.00 0.00 0.00 79 1013.4
20260509060632 55 161 2.6 7.8 0.00 0.00 0.00 79 1013.4
20260509060532 55 128 2.6 7.8 0.00 0.00 0.00 79 1013.4
20260509060433 55 153 2.6 6.1 0.00 0.00 0.00 79 1013.4
20260509060334 55 176 2.6 7.8 0.00 0.00 0.00 79 1013.4
20260509060234 55 147 2.6 7.8 0.00 0.00 0.00 79 1013.4
20260509060130 55 142 2.6 7.8 0.00 0.00 0.00 79 1013.3
20260509060027 55 141 2.6 7.8 0.00 0.00 0.00 78 1013.4
20260509055928 55 139 2.6 7.8 0.00 0.00 0.00 78 1013.4
20260509055828 55 154 2.6 7.8 0.00 0.00 0.00 78 1013.4
20260509055727 55 117 2.6 8.7 0.00 0.00 0.00 78 1013.4
20260509055622 55 115 2.6 8.7 0.00 0.00 0.00 78 1013.5
20260509055521 56 155 2.6 8.7 0.00 0.00 0.00 78 1013.5
20260509055421 56 137 2.6 8.7 0.00 0.00 0.00 78 1013.5
20260509055322 56 157 2.6 8.7 0.00 0.00 0.00 78 1013.4
20260509055221 56 161 2.6 8.7 0.00 0.00 0.00 77 1013.5
20260509055120 56 111 2.6 8.7 0.00 0.00 0.00 77 1013.5
20260509055022 56 180 2.6 8.7 0.00 0.00 0.00 77 1013.7
20260509054918 56 205 2.6 8.7 0.00 0.00 0.00 77 1013.7
20260509054820 56 188 2.6 8.7 0.00 0.00 0.00 77 1013.7
20260509054719 56 153 3.5 8.7 0.00 0.00 0.00 77 1013.7
20260509054616 56 165 2.6 8.7 0.00 0.00 0.00 78 1013.8
20260509054516 56 137 2.6 8.7 0.00 0.00 0.00 77 1013.8
20260509054412 56 161 2.6 8.7 0.00 0.00 0.00 77 1013.8
20260509054312 56 190 2.6 8.7 0.00 0.00 0.00 77 1013.7
20260509054213 56 158 2.6 6.1 0.00 0.00 0.00 78 1013.8
20260509054111 56 165 2.6 7.8 0.00 0.00 0.00 77 1013.8
20260509054009 56 196 2.6 7.8 0.00 0.00 0.00 77 1013.9
20260509053910 56 134 2.6 7.8 0.00 0.00 0.00 77 1013.8
20260509053810 56 160 2.6 7.8 0.00 0.00 0.00 77 1013.9
20260509053709 56 172 2.6 7.8 0.00 0.00 0.00 77 1013.9
20260509053609 56 162 2.6 7.8 0.00 0.00 0.00 77 1013.8
20260509053509 56 125 2.6 7.8 0.00 0.00 0.00 77 1013.9
20260509053403 56 141 2.6 7.8 0.00 0.00 0.00 77 1013.9
20260509053303 56 180 2.6 7.8 0.00 0.00 0.00 77 1013.8
20260509053204 56 180 2.6 7.8 0.00 0.00 0.00 77 1013.9
20260509053104 56 156 2.6 5.2 0.00 0.00 0.00 77 1013.9
20260509053004 56 150 1.7 5.2 0.00 0.00 0.00 77 1013.9
20260509052900 56 141 1.7 5.2 0.00 0.00 0.00 77 1013.9
20260509052757 56 163 1.7 5.2 0.00 0.00 0.00 77 1014.0
20260509052657 56 155 1.7 5.2 0.00 0.00 0.00 77 1013.9
20260509052558 56 165 1.7 5.2 0.00 0.00 0.00 77 1013.9
20260509052455 56 165 1.7 5.2 0.00 0.00 0.00 77 1013.9
20260509052354 56 183 1.7 5.2 0.00 0.00 0.00 77 1014.0
20260509052255 56 166 1.7 5.2 0.00 0.00 0.00 77 1013.9
20260509052154 56 246 1.7 5.2 0.00 0.00 0.00 76 1014.0
20260509052056 56 174 0.9 4.3 0.00 0.00 0.00 76 1013.9
20260509051956 56 159 0.9 4.3 0.00 0.00 0.00 76 1014.0
20260509051856 56 159 1.7 4.3 0.00 0.00 0.00 77 1014.0
20260509051752 56 159 1.7 4.3 0.00 0.00 0.00 76 1014.0
20260509051653 56 159 1.7 4.3 0.00 0.00 0.00 76 1014.0
20260509051552 56 158 1.7 4.3 0.00 0.00 0.00 76 1014.1
20260509051452 56 158 1.7 4.3 0.00 0.00 0.00 76 1014.1
20260509051349 56 104 1.7 5.2 0.00 0.00 0.00 76 1014.1
20260509051247 56 104 1.7 5.2 0.00 0.00 0.00 76 1014.1
20260509051145 56 188 1.7 5.2 0.00 0.00 0.00 76 1014.1
20260509051045 56 190 1.7 5.2 0.00 0.00 0.00 76 1014.1
20260509050944 56 194 1.7 5.2 0.00 0.00 0.00 76 1014.1
20260509050845 56 196 1.7 5.2 0.00 0.00 0.00 76 1014.1
20260509050745 56 139 1.7 5.2 0.00 0.00 0.00 76 1014.1
20260509050644 56 139 1.7 5.2 0.00 0.00 0.00 76 1014.1
20260509050544 56 161 1.7 5.2 0.00 0.00 0.00 76 1014.1
20260509050445 56 163 1.7 6.1 0.00 0.00 0.00 76 1014.2
20260509050345 56 168 1.7 6.1 0.00 0.00 0.00 76 1014.1
20260509050244 56 158 1.7 6.1 0.00 0.00 0.00 76 1014.1
20260509050144 56 161 1.7 6.1 0.00 0.00 0.00 76 1014.2
20260509050046 56 171 1.7 6.1 0.00 0.00 0.00 76 1014.2
20260509045941 56 171 1.7 6.1 0.00 0.00 0.00 76 1014.2
20260509045840 56 174 1.7 6.1 0.00 0.00 0.00 77 1014.2
20260509045741 56 174 1.7 6.1 0.00 0.00 0.00 77 1014.2
20260509045641 56 170 1.7 6.1 0.00 0.00 0.00 76 1014.3
20260509045541 56 170 1.7 6.1 0.00 0.00 0.00 76 1014.2
20260509045440 56 183 1.7 7.0 0.00 0.00 0.00 77 1014.2
20260509045339 56 180 2.6 7.8 0.00 0.00 0.00 77 1014.3
20260509045238 56 165 2.6 7.8 0.00 0.00 0.00 77 1014.3
20260509045140 56 171 2.6 7.8 0.00 0.00 0.00 77 1014.3
20260509045039 56 225 2.6 7.8 0.00 0.00 0.00 77 1014.3
20260509044940 56 171 2.6 7.8 0.00 0.00 0.00 77 1014.4
20260509044838 56 171 2.6 7.8 0.00 0.00 0.00 77 1014.4
20260509044739 56 184 2.6 7.8 0.00 0.00 0.00 77 1014.3
20260509044638 56 182 2.6 7.8 0.00 0.00 0.00 76 1014.3
20260509044540 56 151 2.6 7.8 0.00 0.00 0.00 76 1014.3
20260509044438 56 175 1.7 7.8 0.00 0.00 0.00 76 1014.3
20260509044339 56 193 1.7 7.8 0.00 0.00 0.00 77 1014.3
20260509044240 56 159 1.7 7.8 0.00 0.00 0.00 76 1014.3
20260509044139 56 159 1.7 7.8 0.00 0.00 0.00 76 1014.3
20260509044039 56 123 1.7 7.8 0.00 0.00 0.00 76 1014.4
20260509043939 56 190 1.7 5.2 0.00 0.00 0.00 77 1014.3
20260509043839 56 165 1.7 5.2 0.00 0.00 0.00 76 1014.4
20260509043739 56 165 1.7 5.2 0.00 0.00 0.00 76 1014.3
20260509043639 56 165 1.7 5.2 0.00 0.00 0.00 76 1014.3
20260509043539 56 167 1.7 5.2 0.00 0.00 0.00 76 1014.3
20260509043440 56 167 1.7 5.2 0.00 0.00 0.00 76 1014.3
20260509043336 56 169 1.7 5.2 0.00 0.00 0.00 76 1014.4
20260509043234 56 138 1.7 5.2 0.00 0.00 0.00 76 1014.3
20260509043134 56 169 1.7 7.0 0.00 0.00 0.00 76 1014.4
20260509043034 56 136 1.7 7.0 0.00 0.00 0.00 76 1014.3
20260509042935 56 178 1.7 7.0 0.00 0.00 0.00 76 1014.3
20260509042834 56 175 1.7 7.0 0.00 0.00 0.00 76 1014.3
20260509042736 56 184 1.7 7.0 0.00 0.00 0.00 76 1014.4
20260509042634 56 155 2.6 7.0 0.00 0.00 0.00 76 1014.3
20260509042534 56 155 2.6 7.0 0.00 0.00 0.00 76 1014.3
20260509042436 56 158 2.6 7.0 0.00 0.00 0.00 76 1014.2
20260509042336 56 121 2.6 7.0 0.00 0.00 0.00 76 1014.3
20260509042234 56 204 2.6 7.0 0.00 0.00 0.00 76 1014.4
20260509042136 56 154 2.6 6.1 0.00 0.00 0.00 76 1014.4
20260509042034 56 169 2.6 6.1 0.00 0.00 0.00 76 1014.3
20260509041934 56 174 2.6 6.1 0.00 0.00 0.00 76 1014.3
20260509041834 56 156 2.6 6.1 0.00 0.00 0.00 76 1014.2
20260509041736 56 153 2.6 6.1 0.00 0.00 0.00 76 1014.3
20260509041636 56 166 2.6 7.0 0.00 0.00 0.00 76 1014.3
20260509041534 56 166 2.6 7.0 0.00 0.00 0.00 76 1014.3
20260509041436 56 167 2.6 7.0 0.00 0.00 0.00 76 1014.4
20260509041335 56 157 2.6 7.0 0.00 0.00 0.00 76 1014.4
20260509041234 56 151 2.6 7.0 0.00 0.00 0.00 76 1014.4
20260509041135 56 166 2.6 7.0 0.00 0.00 0.00 76 1014.3
20260509041034 56 172 2.6 7.0 0.00 0.00 0.00 76 1014.3
20260509040935 56 120 2.6 7.0 0.00 0.00 0.00 76 1014.3
20260509040836 56 172 2.6 7.0 0.00 0.00 0.00 76 1014.2
20260509040736 56 178 2.6 7.0 0.00 0.00 0.00 76 1014.3
20260509040635 56 166 2.6 6.1 0.00 0.00 0.00 76 1014.3
20260509040534 56 169 2.6 6.1 0.00 0.00 0.00 76 1014.3
20260509040436 56 171 2.6 6.1 0.00 0.00 0.00 76 1014.3
20260509040334 56 172 2.6 6.1 0.00 0.00 0.00 76 1014.3
20260509040235 56 146 2.6 6.1 0.00 0.00 0.00 76 1014.4
20260509040135 56 146 2.6 6.1 0.00 0.00 0.00 76 1014.3
20260509040036 56 162 2.6 6.1 0.00 0.00 0.00 76 1014.4
20260509035934 56 177 2.6 6.1 0.00 0.00 0.00 75 1014.4
20260509035833 56 177 2.6 6.1 0.00 0.00 0.00 75 1014.4
20260509035732 56 140 2.6 7.8 0.00 0.00 0.00 75 1014.5
20260509035629 56 167 2.6 7.8 0.00 0.00 0.00 75 1014.5
20260509035526 56 158 2.6 7.8 0.00 0.00 0.00 75 1014.5
20260509035427 56 162 2.6 7.8 0.00 0.00 0.00 75 1014.5
20260509035327 56 161 2.6 7.8 0.00 0.00 0.00 75 1014.5
20260509035226 56 165 2.6 7.8 0.00 0.00 0.00 76 1014.6
20260509035123 56 167 2.6 7.8 0.00 0.00 0.00 75 1014.5
20260509035015 56 136 2.6 7.8 0.00 0.00 0.00 75 1014.4
20260509034915 56 136 2.6 7.8 0.00 0.00 0.00 76 1014.4
20260509034815 56 136 2.6 7.8 0.00 0.00 0.00 75 1014.5
20260509034714 56 163 1.7 6.1 0.00 0.00 0.00 76 1014.4
20260509034613 56 150 2.6 6.1 0.00 0.00 0.00 75 1014.4
20260509034507 56 155 2.6 6.1 0.00 0.00 0.00 76 1014.4
20260509034407 56 154 2.6 6.1 0.00 0.00 0.00 75 1014.5
20260509034308 56 165 2.6 6.1 0.00 0.00 0.00 75 1014.5
20260509034206 56 165 2.6 6.1 0.00 0.00 0.00 75 1014.6
20260509034107 56 172 2.6 6.1 0.00 0.00 0.00 75 1014.5
20260509034002 56 177 2.6 6.1 0.00 0.00 0.00 75 1014.5
20260509033902 56 184 2.6 6.1 0.00 0.00 0.00 75 1014.4
20260509033801 56 176 2.6 6.1 0.00 0.00 0.00 75 1014.4
20260509033700 56 185 2.6 6.1 0.00 0.00 0.00 75 1014.4
20260509033603 56 149 2.6 6.1 0.00 0.00 0.00 75 1014.5
20260509033451 56 149 2.6 6.1 0.00 0.00 0.00 75 1014.4
20260509033350 56 194 2.6 6.1 0.00 0.00 0.00 75 1014.5
20260509033250 56 150 2.6 6.1 0.00 0.00 0.00 75 1014.5
20260509033151 56 163 2.6 6.1 0.00 0.00 0.00 75 1014.5
20260509033052 56 163 2.6 6.1 0.00 0.00 0.00 75 1014.6
20260509032947 56 163 2.6 6.1 0.00 0.00 0.00 75 1014.6
20260509032845 56 146 2.6 6.1 0.00 0.00 0.00 75 1014.5
20260509032744 56 146 2.6 6.1 0.00 0.00 0.00 75 1014.5
20260509032646 56 159 2.6 6.1 0.00 0.00 0.00 75 1014.5
20260509032545 56 126 2.6 6.1 0.00 0.00 0.00 75 1014.4
20260509032442 56 123 2.6 6.1 0.00 0.00 0.00 75 1014.5
20260509032339 56 123 2.6 6.1 0.00 0.00 0.00 75 1014.5
20260509032239 56 123 2.6 6.1 0.00 0.00 0.00 75 1014.5
20260509032138 56 166 2.6 6.1 0.00 0.00 0.00 75 1014.6
20260509032040 56 196 2.6 6.1 0.00 0.00 0.00 75 1014.6
20260509031932 56 173 2.6 6.1 0.00 0.00 0.00 75 1014.6
20260509031829 56 137 2.6 5.2 0.00 0.00 0.00 75 1014.6
20260509031729 56 158 2.6 5.2 0.00 0.00 0.00 75 1014.6
20260509031628 56 166 2.6 5.2 0.00 0.00 0.00 75 1014.5
20260509031530 56 140 2.6 5.2 0.00 0.00 0.00 75 1014.5
20260509031426 56 140 2.6 6.1 0.00 0.00 0.00 75 1014.6
20260509031326 56 146 2.6 6.1 0.00 0.00 0.00 75 1014.6
20260509031225 56 153 2.6 6.1 0.00 0.00 0.00 75 1014.6
20260509031124 56 150 2.6 6.1 0.00 0.00 0.00 75 1014.6
20260509031023 56 148 2.6 6.1 0.00 0.00 0.00 75 1014.6
20260509030918 56 128 2.6 6.1 0.00 0.00 0.00 75 1014.6
20260509030817 56 128 2.6 6.1 0.00 0.00 0.00 75 1014.6
20260509030718 56 147 1.7 6.1 0.00 0.00 0.00 75 1014.6
20260509030615 56 138 2.6 6.1 0.00 0.00 0.00 75 1014.7
20260509030515 56 139 1.7 6.1 0.00 0.00 0.00 75 1014.7
20260509030408 56 206 1.7 5.2 0.00 0.00 0.00 75 1014.6
20260509030308 56 163 2.6 5.2 0.00 0.00 0.00 75 1014.6
20260509030209 56 163 2.6 6.1 0.00 0.00 0.00 75 1014.6
20260509030108 56 164 2.6 6.1 0.00 0.00 0.00 75 1014.6
20260509030007 56 165 2.6 6.1 0.00 0.00 0.00 75 1014.6
20260509025900 56 165 2.6 6.1 0.00 0.00 0.00 75 1014.6
20260509025801 56 167 2.6 6.1 0.00 0.00 0.00 75 1014.6
20260509025701 56 167 2.6 6.1 0.00 0.00 0.00 75 1014.6
20260509025602 56 160 2.6 6.1 0.00 0.00 0.00 75 1014.7
20260509025500 56 160 2.6 6.1 0.00 0.00 0.00 75 1014.8
20260509025355 56 162 2.6 6.1 0.00 0.00 0.00 74 1014.6
20260509025252 56 157 2.6 6.1 0.00 0.00 0.00 75 1014.6
20260509025151 56 123 2.6 6.1 0.00 0.00 0.00 74 1014.6
20260509025051 56 175 2.6 6.1 0.00 0.00 0.00 74 1014.7
20260509024951 56 158 2.6 6.1 0.00 0.00 0.00 74 1014.7
20260509024847 56 148 2.6 6.1 0.00 0.00 0.00 74 1014.7
20260509024746 56 148 3.5 6.1 0.00 0.00 0.00 74 1014.8
20260509024644 56 120 2.6 6.1 0.00 0.00 0.00 74 1014.8
20260509024542 56 167 2.6 6.1 0.00 0.00 0.00 74 1014.8
20260509024441 56 142 3.5 6.1 0.00 0.00 0.00 74 1014.8
20260509024339 56 163 3.5 6.1 0.00 0.00 0.00 74 1014.8
20260509024240 56 142 3.5 6.1 0.00 0.00 0.00 74 1014.8
20260509024138 56 161 3.5 6.1 0.00 0.00 0.00 74 1014.8
20260509024037 56 167 2.6 6.1 0.00 0.00 0.00 74 1014.8
20260509023935 56 136 2.6 6.1 0.00 0.00 0.00 74 1014.9
20260509023831 56 136 2.6 6.1 0.00 0.00 0.00 74 1014.8
20260509023731 56 146 2.6 6.1 0.00 0.00 0.00 74 1014.7
20260509023630 56 150 3.5 6.1 0.00 0.00 0.00 74 1014.8
20260509023530 56 168 2.6 6.1 0.00 0.00 0.00 74 1014.7
20260509023431 56 175 2.6 6.1 0.00 0.00 0.00 74 1014.8
20260509023330 56 140 2.6 6.1 0.00 0.00 0.00 74 1014.8
20260509023229 56 154 2.6 6.1 0.00 0.00 0.00 74 1014.7
20260509023128 56 146 2.6 6.1 0.00 0.00 0.00 74 1014.8
20260509023027 56 170 2.6 6.1 0.00 0.00 0.00 73 1014.8
20260509022927 56 163 3.5 6.1 0.00 0.00 0.00 73 1014.7
20260509022826 56 144 3.5 6.1 0.00 0.00 0.00 73 1014.7
20260509022726 56 159 3.5 6.1 0.00 0.00 0.00 73 1014.8
20260509022628 56 157 2.6 6.1 0.00 0.00 0.00 73 1014.8
20260509022524 56 155 3.5 6.1 0.00 0.00 0.00 73 1014.8
20260509022424 56 166 3.5 6.1 0.00 0.00 0.00 73 1014.8
20260509022325 56 173 3.5 6.1 0.00 0.00 0.00 73 1014.8
20260509022226 56 163 3.5 6.1 0.00 0.00 0.00 73 1014.8
20260509022125 56 163 3.5 6.1 0.00 0.00 0.00 73 1014.7
20260509022025 56 168 3.5 6.1 0.00 0.00 0.00 73 1014.8
20260509021924 56 158 3.5 6.1 0.00 0.00 0.00 73 1014.7
20260509021824 56 160 3.5 6.1 0.00 0.00 0.00 73 1014.8
20260509021725 56 157 3.5 6.1 0.00 0.00 0.00 73 1014.8
20260509021624 56 148 3.5 6.1 0.00 0.00 0.00 73 1014.8
20260509021525 56 162 3.5 7.0 0.00 0.00 0.00 73 1014.8
20260509021420 56 173 3.5 7.0 0.00 0.00 0.00 73 1015.0
20260509021322 56 159 2.6 7.0 0.00 0.00 0.00 73 1014.9
20260509021220 56 153 3.5 7.0 0.00 0.00 0.00 73 1015.0
20260509021120 56 159 3.5 7.0 0.00 0.00 0.00 73 1014.8
20260509021021 56 160 3.5 7.0 0.00 0.00 0.00 73 1014.9
20260509020922 56 161 2.6 7.0 0.00 0.00 0.00 73 1014.8
20260509020821 56 159 2.6 7.0 0.00 0.00 0.00 72 1014.8
20260509020721 56 159 2.6 7.0 0.00 0.00 0.00 73 1014.7
20260509020620 56 163 2.6 7.0 0.00 0.00 0.00 72 1014.7
20260509020521 56 165 2.6 6.1 0.00 0.00 0.00 72 1014.7
20260509020420 56 167 2.6 6.1 0.00 0.00 0.00 72 1014.7
20260509020321 56 144 2.6 5.2 0.00 0.00 0.00 72 1014.7
20260509020220 56 173 2.6 5.2 0.00 0.00 0.00 72 1014.7
20260509020120 56 171 2.6 5.2 0.00 0.00 0.00 72 1014.8
20260509020021 56 158 2.6 6.1 0.00 0.00 0.00 72 1014.7
20260509015921 56 157 2.6 6.1 0.00 0.00 0.00 72 1014.6
20260509015820 56 157 3.5 6.1 0.00 0.00 0.00 72 1014.7
20260509015722 56 160 3.5 6.1 0.00 0.00 0.00 72 1014.7
20260509015620 56 161 3.5 6.1 0.00 0.00 0.00 72 1014.8
20260509015522 56 158 3.5 6.1 0.00 0.00 0.00 72 1014.7
20260509015420 56 163 3.5 6.1 0.00 0.00 0.00 72 1014.8
20260509015322 56 167 3.5 6.1 0.00 0.00 0.00 72 1014.8
20260509015221 56 167 3.5 6.1 0.00 0.00 0.00 71 1014.8
20260509015120 56 163 3.5 6.1 0.00 0.00 0.00 71 1014.7
20260509015022 56 162 3.5 6.1 0.00 0.00 0.00 71 1014.6
20260509014922 56 162 3.5 6.1 0.00 0.00 0.00 71 1014.7
20260509014714 56 163 2.6 6.1 0.00 0.00 0.00 71 1014.7
20260509014612 56 163 2.6 6.1 0.00 0.00 0.00 71 1014.7
20260509014514 56 162 2.6 6.1 0.00 0.00 0.00 71 1014.7
20260509014414 56 163 2.6 6.1 0.00 0.00 0.00 71 1014.8
20260509014314 56 167 2.6 6.1 0.00 0.00 0.00 71 1014.8
20260509014213 56 167 2.6 6.1 0.00 0.00 0.00 71 1014.8
20260509014112 56 167 2.6 6.1 0.00 0.00 0.00 70 1014.8
20260509014013 56 143 2.6 6.1 0.00 0.00 0.00 70 1014.8
20260509013913 56 139 2.6 6.1 0.00 0.00 0.00 70 1014.8
20260509013813 56 153 2.6 6.1 0.00 0.00 0.00 70 1014.8
20260509013713 57 155 2.6 6.1 0.00 0.00 0.00 70 1014.8
20260509013612 57 154 2.6 6.1 0.00 0.00 0.00 70 1014.7
20260509013514 57 159 2.6 7.8 0.00 0.00 0.00 70 1014.7
20260509013413 57 158 2.6 7.8 0.00 0.00 0.00 70 1014.6
20260509013313 57 158 2.6 7.8 0.00 0.00 0.00 70 1014.7
20260509013214 57 155 2.6 7.8 0.00 0.00 0.00 70 1014.7
20260509013113 57 153 2.6 7.8 0.00 0.00 0.00 70 1014.6
20260509013012 57 167 2.6 7.8 0.00 0.00 0.00 70 1014.6
20260509012912 57 167 2.6 7.8 0.00 0.00 0.00 70 1014.6
20260509012814 57 167 2.6 7.8 0.00 0.00 0.00 70 1014.6
20260509012712 57 168 2.6 7.8 0.00 0.00 0.00 70 1014.5
20260509012614 57 157 3.5 7.8 0.00 0.00 0.00 70 1014.5
20260509012512 57 157 3.5 7.0 0.00 0.00 0.00 70 1014.5
20260509012413 57 184 2.6 7.0 0.00 0.00 0.00 70 1014.5
20260509012314 57 140 2.6 7.0 0.00 0.00 0.00 70 1014.5
20260509012213 57 155 2.6 7.0 0.00 0.00 0.00 70 1014.5
20260509012113 57 147 3.5 7.0 0.00 0.00 0.00 69 1014.4
20260509012012 57 144 3.5 7.0 0.00 0.00 0.00 70 1014.5
20260509011913 57 176 3.5 7.0 0.00 0.00 0.00 70 1014.4
20260509011812 57 168 3.5 6.1 0.00 0.00 0.00 69 1014.4
20260509011713 57 161 2.6 6.1 0.00 0.00 0.00 69 1014.4
20260509011613 57 158 3.5 6.1 0.00 0.00 0.00 69 1014.5
20260509011509 57 168 3.5 6.1 0.00 0.00 0.00 69 1014.5
20260509011410 57 167 3.5 6.1 0.00 0.00 0.00 69 1014.4
20260509011308 57 167 3.5 6.1 0.00 0.00 0.00 69 1014.5
20260509011209 57 136 3.5 7.0 0.00 0.00 0.00 69 1014.5
20260509011109 57 171 3.5 7.0 0.00 0.00 0.00 69 1014.5
20260509011010 57 152 3.5 7.0 0.00 0.00 0.00 69 1014.5
20260509010908 57 150 3.5 7.0 0.00 0.00 0.00 69 1014.5
20260509010855 57 167 3.5 7.0 0.00 0.00 0.00 69 1014.5
20260509010850 57 169 3.5 7.0 0.00 0.00 0.00 68 1014.4
20260509010609 57 150 3.5 7.0 0.00 0.00 0.00 68 1014.5
20260509010509 57 163 3.5 7.0 0.00 0.00 0.00 68 1014.5
20260509010409 57 142 3.5 7.0 0.00 0.00 0.00 68 1014.6
20260509010309 57 174 2.6 7.0 0.00 0.00 0.00 68 1014.6
20260509010208 57 157 2.6 7.0 0.00 0.00 0.00 68 1014.5
20260509010110 57 148 2.6 5.2 0.00 0.00 0.00 68 1014.6
20260509010010 57 148 2.6 5.2 0.00 0.00 0.00 68 1014.6
20260509005908 57 157 2.6 5.2 0.00 0.00 0.00 68 1014.6
20260509005810 57 161 2.6 5.2 0.00 0.00 0.00 68 1014.6
20260509005708 57 137 2.6 3.5 0.00 0.00 0.00 68 1014.6
20260509005609 57 136 2.6 4.3 0.00 0.00 0.00 68 1014.6
20260509005510 57 145 2.6 4.3 0.00 0.00 0.00 68 1014.5
20260509005408 57 144 2.6 5.2 0.00 0.00 0.00 68 1014.5
20260509005310 57 144 2.6 6.1 0.00 0.00 0.00 68 1014.5
20260509005209 57 143 2.6 6.1 0.00 0.00 0.00 67 1014.5
20260509005109 57 143 2.6 6.1 0.00 0.00 0.00 68 1014.5
20260509005009 57 143 2.6 6.1 0.00 0.00 0.00 67 1014.5
20260509004909 57 155 2.6 6.1 0.00 0.00 0.00 67 1014.5
20260509004808 57 155 2.6 6.1 0.00 0.00 0.00 67 1014.5
20260509004708 57 168 2.6 6.1 0.00 0.00 0.00 67 1014.5
20260509004609 57 166 2.6 6.1 0.00 0.00 0.00 67 1014.4
20260509004508 57 166 2.6 6.1 0.00 0.00 0.00 67 1014.5
20260509004409 58 163 2.6 6.1 0.00 0.00 0.00 67 1014.5
20260509004310 58 190 2.6 5.2 0.00 0.00 0.00 67 1014.5
20260509004205 58 161 2.6 5.2 0.00 0.00 0.00 67 1014.4
20260509004104 58 161 2.6 5.2 0.00 0.00 0.00 67 1014.4
20260509004004 58 161 2.6 5.2 0.00 0.00 0.00 67 1014.4
20260509003906 58 161 2.6 5.2 0.00 0.00 0.00 66 1014.3
20260509003804 58 180 2.6 5.2 0.00 0.00 0.00 66 1014.4
20260509003704 58 175 2.6 5.2 0.00 0.00 0.00 66 1014.4
20260509003605 58 176 2.6 5.2 0.00 0.00 0.00 66 1014.3
20260509003505 58 177 2.6 5.2 0.00 0.00 0.00 66 1014.4
20260509003404 58 154 2.6 5.2 0.00 0.00 0.00 67 1014.3
20260509003306 58 153 2.6 5.2 0.00 0.00 0.00 67 1014.3
20260509003204 58 152 2.6 5.2 0.00 0.00 0.00 66 1014.3
20260509003104 58 214 2.6 5.2 0.00 0.00 0.00 66 1014.4
20260509003006 58 173 2.6 5.2 0.00 0.00 0.00 66 1014.3
20260509002905 58 167 2.6 5.2 0.00 0.00 0.00 66 1014.3
20260509002804 58 155 2.6 5.2 0.00 0.00 0.00 66 1014.3
20260509002705 58 140 2.6 5.2 0.00 0.00 0.00 66 1014.3
20260509002606 58 164 2.6 5.2 0.00 0.00 0.00 65 1014.3
20260509002505 58 163 2.6 5.2 0.00 0.00 0.00 65 1014.3
20260509002404 58 183 2.6 5.2 0.00 0.00 0.00 65 1014.3
20260509002306 58 192 2.6 5.2 0.00 0.00 0.00 65 1014.3
20260509002204 58 169 2.6 5.2 0.00 0.00 0.00 65 1014.3
20260509002104 58 169 2.6 5.2 0.00 0.00 0.00 65 1014.2
20260509002005 58 168 2.6 5.2 0.00 0.00 0.00 65 1014.2
20260509001904 58 167 2.6 5.2 0.00 0.00 0.00 65 1014.3
20260509001804 58 177 1.7 4.3 0.00 0.00 0.00 65 1014.2
20260509001706 58 177 1.7 4.3 0.00 0.00 0.00 65 1014.1
20260509001605 58 180 1.7 4.3 0.00 0.00 0.00 65 1014.1
20260509001505 59 179 2.6 5.2 0.00 0.00 0.00 64 1014.1
20260509001405 59 163 2.6 5.2 0.00 0.00 0.00 65 1014.1
20260509001305 59 168 2.6 5.2 0.00 0.00 0.00 64 1014.2
20260509001205 59 191 2.6 5.2 0.00 0.00 0.00 64 1014.2
20260509001104 59 157 2.6 5.2 0.00 0.00 0.00 64 1014.2
20260509001006 59 157 2.6 5.2 0.00 0.00 0.00 64 1014.3
20260509000901 59 186 2.6 5.2 0.00 0.00 0.00 64 1014.3
20260509000800 59 189 2.6 5.2 0.00 0.00 0.00 64 1014.2
20260509000659 59 146 2.6 5.2 0.00 0.00 0.00 64 1014.2
20260509000558 59 144 2.6 5.2 0.00 0.00 0.00 64 1014.3
20260509000457 59 176 2.6 5.2 0.00 0.00 0.00 64 1014.2
20260509000355 59 179 2.6 5.2 0.00 0.00 0.00 63 1014.2
20260509000256 59 179 2.6 5.2 0.00 0.00 0.00 63 1014.1
20260509000152 59 186 2.6 5.2 0.00 0.00 0.00 64 1014.1
20260509000051 59 186 2.6 5.2 0.00 0.00 0.00 63 1014.1
20260508235951 59 167 2.6 5.2 0.00 0.00 0.00 64 1014.0
20260508235839 59 167 2.6 5.2 0.00 0.00 0.00 63 1014.1
20260508235739 59 182 2.6 5.2 0.00 0.00 0.00 63 1014.1
20260508235638 59 182 2.6 7.8 0.00 0.00 0.00 63 1014.1
20260508235539 59 184 2.6 7.8 0.00 0.00 0.00 63 1014.1
20260508235438 59 183 2.6 7.8 0.00 0.00 0.00 63 1014.1
20260508235332 59 173 2.6 7.8 0.00 0.00 0.00 63 1014.2
20260508235233 60 155 2.6 7.8 0.00 0.00 0.00 63 1014.2
20260508235132 59 151 2.6 7.8 0.00 0.00 0.00 63 1014.2
20260508235031 60 142 2.6 7.8 0.00 0.00 0.00 63 1014.2
20260508234933 60 157 2.6 7.8 0.00 0.00 0.00 63 1014.1
20260508234828 60 157 2.6 7.8 0.00 0.00 0.00 63 1014.2
20260508234728 60 157 2.6 7.8 0.00 0.00 0.00 62 1014.0
20260508234629 60 148 1.7 5.2 0.00 0.00 0.00 63 1014.1
20260508234529 60 148 1.7 5.2 0.00 0.00 0.00 62 1014.0
20260508234426 60 159 1.7 5.2 0.00 0.00 0.00 61 1014.1
20260508234315 60 174 1.7 5.2 0.00 0.00 0.00 62 1014.1
20260508234215 60 152 1.7 5.2 0.00 0.00 0.00 62 1014.1
20260508234115 60 153 1.7 5.2 0.00 0.00 0.00 62 1014.1
20260508234014 60 150 1.7 5.2 0.00 0.00 0.00 62 1014.0
20260508233914 60 148 1.7 5.2 0.00 0.00 0.00 61 1014.1
20260508233812 60 147 1.7 5.2 0.00 0.00 0.00 61 1014.0
20260508233713 60 153 1.7 5.2 0.00 0.00 0.00 61 1014.0
20260508233610 60 157 1.7 5.2 0.00 0.00 0.00 61 1014.0
20260508233511 60 153 1.7 5.2 0.00 0.00 0.00 61 1014.0
20260508233408 60 167 1.7 5.2 0.00 0.00 0.00 60 1014.0
20260508233304 60 167 1.7 5.2 0.00 0.00 0.00 60 1014.1
20260508233205 61 143 1.7 5.2 0.00 0.00 0.00 61 1014.1
20260508233104 61 145 1.7 5.2 0.00 0.00 0.00 61 1014.1
20260508233006 61 145 1.7 5.2 0.00 0.00 0.00 60 1014.2
20260508232903 61 145 1.7 5.2 0.00 0.00 0.00 60 1014.2
20260508232755 61 145 1.7 5.2 0.00 0.00 0.00 59 1014.2
20260508232655 61 145 1.7 5.2 0.00 0.00 0.00 59 1014.1
20260508232553 61 145 1.7 5.2 0.00 0.00 0.00 59 1014.1
20260508232454 61 156 1.7 5.2 0.00 0.00 0.00 59 1014.1
20260508232351 61 159 1.7 4.3 0.00 0.00 0.00 59 1014.2
20260508232252 61 158 1.7 4.3 0.00 0.00 0.00 59 1014.3
20260508232149 61 158 2.6 5.2 0.00 0.00 0.00 59 1014.1
20260508232046 61 158 2.6 7.8 0.00 0.00 0.00 59 1014.2
20260508231948 61 161 2.6 7.8 0.00 0.00 0.00 59 1014.1
20260508231844 61 161 2.6 7.8 0.00 0.00 0.00 58 1014.2
20260508231743 61 164 3.5 7.8 0.00 0.00 0.00 58 1014.1
20260508231643 61 163 2.6 7.8 0.00 0.00 0.00 58 1014.2
20260508231541 61 160 2.6 7.8 0.00 0.00 0.00 58 1014.1
20260508231440 61 163 2.6 7.8 0.00 0.00 0.00 57 1014.2
20260508231339 61 162 2.6 7.8 0.00 0.00 0.00 58 1014.3
20260508231230 61 161 2.6 7.8 0.00 0.00 0.00 57 1014.2
20260508231129 61 156 2.6 7.8 0.00 0.00 0.00 57 1014.3
20260508231030 62 191 2.6 7.0 0.00 0.00 0.00 57 1014.3
20260508230931 62 185 2.6 7.0 0.00 0.00 0.00 57 1014.3
20260508230828 62 155 2.6 7.0 0.00 0.00 0.00 58 1014.4
20260508230722 62 183 1.7 6.1 0.00 0.00 0.00 58 1014.4
20260508230622 62 163 2.6 6.1 0.00 0.00 0.00 58 1014.3
20260508230522 62 163 2.6 8.7 0.00 0.00 0.00 57 1014.2
20260508230423 62 165 2.6 8.7 0.00 0.00 0.00 57 1014.2
20260508230323 62 155 2.6 8.7 0.00 0.00 0.00 58 1014.2
20260508230219 62 159 3.5 8.7 0.00 0.00 0.00 57 1014.2
20260508230116 62 158 3.5 8.7 0.00 0.00 0.00 57 1014.4
20260508230017 62 151 3.5 8.7 0.00 0.00 0.00 56 1014.3
20260508225916 62 154 3.5 8.7 0.00 0.00 0.00 58 1014.3
20260508225816 62 156 3.5 8.7 0.00 0.00 0.00 56 1014.4
20260508225706 62 184 3.5 8.7 0.00 0.00 0.00 55 1014.4
20260508225605 62 199 3.5 8.7 0.00 0.00 0.00 55 1014.3
20260508225506 62 163 3.5 8.7 0.00 0.00 0.00 56 1014.3
20260508225404 62 186 2.6 8.7 0.00 0.00 0.00 56 1014.3
20260508225306 62 136 2.6 8.7 0.00 0.00 0.00 56 1014.2
20260508225201 62 163 3.5 8.7 0.00 0.00 0.00 55 1014.2
20260508225100 62 182 3.5 8.7 0.00 0.00 0.00 55 1014.2
20260508224958 63 180 3.5 8.7 0.00 0.00 0.00 54 1014.1
20260508224859 63 171 3.5 8.7 0.00 0.00 0.00 55 1014.1
20260508224758 63 156 3.5 8.7 0.00 0.00 0.00 56 1014.1
20260508224653 63 157 3.5 8.7 0.00 0.00 0.00 53 1014.1
20260508224554 63 211 3.5 7.8 0.00 0.00 0.00 54 1014.2
20260508224453 63 196 3.5 7.8 0.00 0.00 0.00 54 1014.1
20260508224353 63 209 2.6 7.8 0.00 0.00 0.00 54 1014.2
20260508224253 63 149 2.6 7.8 0.00 0.00 0.00 54 1014.1
20260508224142 63 166 1.7 7.8 0.00 0.00 0.00 53 1014.2
20260508224042 63 158 1.7 7.8 0.00 0.00 0.00 54 1014.2
20260508223943 63 101 0.9 6.1 0.00 0.00 0.00 54 1014.2
20260508223843 63 130 0.9 6.1 0.00 0.00 0.00 54 1014.2
20260508223742 63 123 0.9 6.1 0.00 0.00 0.00 54 1014.2
20260508223641 64 165 0.9 6.1 0.00 0.00 0.00 53 1014.2
20260508223540 64 173 0.9 6.1 0.00 0.00 0.00 53 1014.1
20260508223438 64 173 0.0 6.1 0.00 0.00 0.00 52 1014.1
20260508223338 64 122 0.0 4.3 0.00 0.00 0.00 53 1014.1
20260508223237 64 163 0.9 5.2 0.00 0.00 0.00 53 1014.1
20260508223134 64 168 0.9 5.2 0.00 0.00 0.00 52 1014.1
20260508223033 64 132 0.9 5.2 0.00 0.00 0.00 53 1014.1
20260508222932 64 178 0.9 5.2 0.00 0.00 0.00 52 1014.1
20260508222833 64 161 0.9 5.2 0.00 0.00 0.00 52 1014.2
20260508222731 64 138 0.9 5.2 0.00 0.00 0.00 52 1014.1
20260508222624 64 133 0.9 5.2 0.00 0.00 0.00 52 1014.3
20260508222521 64 133 0.9 5.2 0.00 0.00 0.00 51 1014.1
20260508222422 64 146 0.9 5.2 0.00 0.00 0.00 52 1014.1
20260508222320 64 202 0.9 5.2 0.00 0.00 0.00 51 1014.1
20260508222220 64 143 0.9 4.3 0.00 0.00 0.00 51 1014.1
20260508222117 64 147 0.0 4.3 0.00 0.00 0.00 50 1014.1
20260508222015 64 137 0.0 2.6 0.00 0.00 0.00 50 1014.1
20260508221915 64 140 0.0 1.7 0.00 0.00 0.00 49 1014.0
20260508221815 64 184 0.0 0.0 0.00 0.00 0.00 50 1014.0
20260508221714 64 149 0.0 0.0 0.00 0.00 0.00 50 1014.0
20260508221612 64 151 0.0 0.0 0.00 0.00 0.00 50 1014.0
20260508221513 64 164 0.0 0.0 0.00 0.00 0.00 49 1014.1
20260508221412 64 161 0.0 0.0 0.00 0.00 0.00 50 1014.1
20260508221311 64 153 0.0 0.0 0.00 0.00 0.00 49 1014.1
20260508221209 64 147 0.0 0.0 0.00 0.00 0.00 50 1014.1
20260508221100 64 144 0.0 0.0 0.00 0.00 0.00 49 1014.1
20260508220958 64 157 0.0 0.0 0.00 0.00 0.00 49 1014.1
20260508220859 64 163 0.0 0.0 0.00 0.00 0.00 49 1014.2
20260508220759 64 163 0.0 0.0 0.00 0.00 0.00 49 1014.1
20260508220659 64 163 0.0 0.0 0.00 0.00 0.00 49 1014.1
20260508220553 64 246 0.0 0.0 0.00 0.00 0.00 49 1014.1
20260508220452 64 150 0.0 0.0 0.00 0.00 0.00 49 1013.9
20260508220353 64 144 0.0 0.0 0.00 0.00 0.00 48 1013.9
20260508220252 64 144 0.0 0.0 0.00 0.00 0.00 48 1014.0
20260508220152 64 148 0.0 0.0 0.00 0.00 0.00 48 1013.9
20260508220047 64 131 0.0 0.0 0.00 0.00 0.00 48 1013.8
20260508215947 64 149 0.0 0.0 0.00 0.00 0.00 47 1013.7
20260508215847 65 126 0.0 0.0 0.00 0.00 0.00 47 1013.8
20260508215745 65 202 0.0 0.0 0.00 0.00 0.00 47 1013.8
20260508215646 65 132 0.0 1.7 0.00 0.00 0.00 46 1013.8
20260508215538 65 196 0.9 3.5 0.00 0.00 0.00 48 1013.7
20260508215438 65 184 0.9 5.2 0.00 0.00 0.00 47 1013.7
20260508215339 64 132 0.9 6.1 0.00 0.00 0.00 46 1013.7
20260508215238 64 156 1.7 6.1 0.00 0.00 0.00 46 1013.8
20260508215136 64 167 1.7 6.1 0.00 0.00 0.00 47 1013.7
20260508215033 64 121 2.6 7.0 0.00 0.00 0.00 47 1013.7
20260508214934 64 134 2.6 7.0 0.00 0.00 0.00 49 1013.7
20260508214835 64 134 2.6 7.0 0.00 0.00 0.00 49 1013.7
20260508214732 64 134 3.5 7.0 0.00 0.00 0.00 48 1013.8
20260508214631 64 133 3.5 7.0 0.00 0.00 0.00 47 1013.7
20260508214523 64 115 3.5 7.0 0.00 0.00 0.00 48 1013.7
20260508214424 64 102 2.6 7.0 0.00 0.00 0.00 46 1013.8
20260508214325 64 138 2.6 7.0 0.00 0.00 0.00 45 1013.8
20260508214225 64 137 2.6 7.0 0.00 0.00 0.00 46 1013.8
20260508214125 64 136 2.6 6.1 0.00 0.00 0.00 47 1013.8
20260508214013 64 167 2.6 6.1 0.00 0.00 0.00 47 1013.8
20260508213914 64 134 2.6 6.1 0.00 0.00 0.00 45 1013.9
20260508213814 64 133 1.7 6.1 0.00 0.00 0.00 46 1013.9
20260508213715 64 131 1.7 6.1 0.00 0.00 0.00 47 1013.9
20260508213614 64 131 1.7 6.1 0.00 0.00 0.00 46 1013.9
20260508213512 64 171 1.7 6.1 0.00 0.00 0.00 45 1013.9
20260508213410 64 128 0.9 5.2 0.00 0.00 0.00 45 1013.9
20260508213309 64 107 0.9 5.2 0.00 0.00 0.00 44 1013.9
20260508213207 64 165 0.9 5.2 0.00 0.00 0.00 44 1013.9
20260508213109 65 143 0.0 5.2 0.00 0.00 0.00 44 1014.0
20260508213002 65 123 0.0 4.3 0.00 0.00 0.00 45 1014.0
20260508212902 65 128 0.0 0.0 0.00 0.00 0.00 45 1013.9
20260508212803 65 126 0.0 0.0 0.00 0.00 0.00 43 1013.9
20260508212702 65 129 0.0 0.0 0.00 0.00 0.00 46 1013.9
20260508212602 65 121 0.0 0.0 0.00 0.00 0.00 46 1013.9
20260508212454 65 121 0.0 0.0 0.00 0.00 0.00 44 1013.9
20260508212352 65 152 0.0 0.0 0.00 0.00 0.00 42 1014.0
20260508212252 65 153 0.0 0.0 0.00 0.00 0.00 42 1013.9
20260508212151 65 182 0.0 0.0 0.00 0.00 0.00 44 1013.9
20260508212053 65 151 0.0 0.0 0.00 0.00 0.00 44 1013.9
20260508211950 65 181 0.0 0.0 0.00 0.00 0.00 42 1014.0
20260508211851 65 151 0.0 0.0 0.00 0.00 0.00 45 1014.0
20260508211751 65 148 0.0 0.0 0.00 0.00 0.00 44 1014.0
20260508211649 65 150 0.0 0.0 0.00 0.00 0.00 46 1013.9
20260508211546 65 172 0.0 0.0 0.00 0.00 0.00 45 1014.0
20260508211447 65 136 0.0 0.0 0.00 0.00 0.00 45 1014.0
20260508211345 65 137 0.0 0.0 0.00 0.00 0.00 46 1014.0
20260508211244 65 204 0.0 0.0 0.00 0.00 0.00 45 1014.0
20260508211143 65 167 0.0 0.0 0.00 0.00 0.00 46 1014.0
20260508211041 65 168 0.0 0.0 0.00 0.00 0.00 47 1014.1
20260508210935 65 170 0.0 0.0 0.00 0.00 0.00 45 1014.0
20260508210834 65 171 0.0 0.0 0.00 0.00 0.00 45 1014.0
20260508210735 65 132 0.0 0.0 0.00 0.00 0.00 45 1014.1
20260508210632 65 134 0.0 0.0 0.00 0.00 0.00 45 1014.0
20260508210530 65 117 0.0 0.0 0.00 0.00 0.00 45 1014.0
20260508210429 65 132 0.0 0.0 0.00 0.00 0.00 47 1014.0
20260508210328 65 178 0.0 0.0 0.00 0.00 0.00 44 1014.0
20260508210228 65 200 0.0 0.0 0.00 0.00 0.00 46 1014.1
20260508210127 65 159 0.0 0.0 0.00 0.00 0.00 45 1014.1
20260508210025 65 110 0.0 0.0 0.00 0.00 0.00 44 1014.0
20260508205920 65 150 0.0 0.0 0.00 0.00 0.00 45 1014.0
20260508205819 65 150 0.0 0.0 0.00 0.00 0.00 44 1014.1
20260508205719 65 150 0.0 0.0 0.00 0.00 0.00 44 1014.0
20260508205618 65 150 0.0 0.0 0.00 0.00 0.00 43 1014.0
20260508205519 65 153 0.0 0.0 0.00 0.00 0.00 43 1014.2
20260508205409 65 161 0.0 0.0 0.00 0.00 0.00 44 1014.1
20260508205310 65 144 0.0 0.0 0.00 0.00 0.00 44 1014.1
20260508205209 65 165 0.0 0.0 0.00 0.00 0.00 47 1014.2
20260508205111 65 153 0.0 0.0 0.00 0.00 0.00 46 1014.3
20260508205009 65 201 0.0 0.0 0.00 0.00 0.00 45 1014.3
20260508204902 65 162 0.0 0.0 0.00 0.00 0.00 45 1014.3
20260508204801 65 158 0.0 0.0 0.00 0.00 0.00 45 1014.4
20260508204702 65 143 0.0 0.0 0.00 0.00 0.00 43 1014.3
20260508204601 65 124 0.0 0.0 0.00 0.00 0.00 45 1014.3
20260508204502 65 105 0.0 0.0 0.00 0.00 0.00 46 1014.4
20260508204401 65 126 0.0 0.0 0.00 0.00 0.00 45 1014.3
20260508204300 65 120 0.0 0.0 0.00 0.00 0.00 45 1014.4
20260508204159 65 134 0.0 0.0 0.00 0.00 0.00 44 1014.3
20260508204059 65 134 0.0 0.0 0.00 0.00 0.00 45 1014.4
20260508203957 65 135 0.0 0.0 0.00 0.00 0.00 44 1014.4
20260508203850 65 124 0.0 0.0 0.00 0.00 0.00 43 1014.4
20260508203747 65 175 0.0 0.0 0.00 0.00 0.00 44 1014.4
20260508203646 65 150 0.0 0.0 0.00 0.00 0.00 45 1014.4
20260508203547 65 178 0.0 0.0 0.00 0.00 0.00 44 1014.5
20260508203447 65 119 0.0 0.0 0.00 0.00 0.00 43 1014.4
20260508203340 65 152 0.0 0.0 0.00 0.00 0.00 45 1014.4
20260508203240 65 105 0.0 0.0 0.00 0.00 0.00 44 1014.4
20260508203141 65 102 0.0 0.0 0.00 0.00 0.00 45 1014.5
20260508203040 65 102 0.0 0.0 0.00 0.00 0.00 43 1014.4
20260508202941 65 144 0.0 0.0 0.00 0.00 0.00 44 1014.5
20260508202839 65 157 0.0 0.0 0.00 0.00 0.00 43 1014.6
20260508202738 65 120 0.0 0.0 0.00 0.00 0.00 42 1014.6
20260508202639 65 123 0.0 0.0 0.00 0.00 0.00 42 1014.5
20260508202538 65 113 0.0 0.0 0.00 0.00 0.00 43 1014.5
20260508202435 65 115 0.0 0.0 0.00 0.00 0.00 43 1014.5
20260508202325 65 119 0.0 0.0 0.00 0.00 0.00 44 1014.6
20260508202224 65 87 0.0 0.0 0.00 0.00 0.00 41 1014.7
20260508202124 65 128 0.0 0.0 0.00 0.00 0.00 41 1014.7
20260508202025 65 112 0.0 0.0 0.00 0.00 0.00 39 1014.7
20260508201929 65 115 0.0 0.0 0.00 0.00 0.00 42 1014.8
20260508201820 65 123 0.0 0.0 0.00 0.00 0.00 40 1014.8
20260508201721 65 153 0.0 0.0 0.00 0.00 0.00 40 1014.9
20260508201620 65 141 0.0 0.0 0.00 0.00 0.00 40 1015.0
20260508201521 65 112 0.0 0.0 0.00 0.00 0.00 40 1015.0
20260508201419 65 197 0.0 0.0 0.00 0.00 0.00 39 1015.1
20260508201319 65 177 0.0 0.0 0.00 0.00 0.00 39 1015.3
20260508201217 65 148 0.0 0.0 0.00 0.00 0.00 40 1015.3
20260508201116 65 151 0.0 0.0 0.00 0.00 0.00 38 1015.3
20260508201015 65 130 0.0 0.0 0.00 0.00 0.00 39 1015.3
20260508200913 66 144 0.0 0.0 0.00 0.00 0.00 40 1015.3
20260508200801 65 120 0.0 0.0 0.00 0.00 0.00 40 1015.3
20260508200702 65 136 0.0 0.0 0.00 0.00 0.00 42 1015.4
20260508200603 65 138 0.0 0.0 0.00 0.00 0.00 40 1015.3
20260508200503 65 153 0.0 0.0 0.00 0.00 0.00 41 1015.3
20260508200402 65 157 0.0 0.0 0.00 0.00 0.00 40 1015.1
20260508200259 65 148 0.0 0.0 0.00 0.00 0.00 39 1015.1
20260508200156 65 111 0.0 0.0 0.00 0.00 0.00 39 1015.1
20260508200056 65 158 0.0 0.0 0.00 0.00 0.00 39 1015.3
20260508195956 65 123 0.0 0.0 0.00 0.00 0.00 38 1015.4
20260508195857 65 146 0.0 0.0 0.00 0.00 0.00 37 1015.3
20260508195755 65 160 0.0 0.0 0.00 0.00 0.00 39 1015.3
20260508195654 65 113 0.0 0.0 0.00 0.00 0.00 40 1015.3
20260508195554 65 174 0.0 0.0 0.00 0.00 0.00 38 1015.1
20260508195453 65 117 0.0 0.0 0.00 0.00 0.00 38 1015.1
20260508195350 65 121 0.0 0.0 0.00 0.00 0.00 38 1015.1
20260508195245 65 140 0.0 0.0 0.00 0.00 0.00 37 1015.3
20260508195145 66 154 0.0 0.0 0.00 0.00 0.00 39 1015.4
20260508195044 66 156 0.0 0.0 0.00 0.00 0.00 38 1015.4
20260508194942 66 114 0.0 0.0 0.00 0.00 0.00 36 1015.3
20260508194841 66 209 0.0 0.0 0.00 0.00 0.00 37 1015.3
20260508194741 66 143 0.0 0.0 0.00 0.00 0.00 38 1015.3
20260508194638 66 155 0.0 0.0 0.00 0.00 0.00 39 1015.4
20260508194539 66 136 0.0 0.0 0.00 0.00 0.00 38 1015.4
20260508194436 66 173 0.0 0.0 0.00 0.00 0.00 40 1015.4
20260508194335 65 168 0.0 0.0 0.00 0.00 0.00 37 1015.4
20260508194229 65 130 0.0 0.0 0.00 0.00 0.00 37 1015.4
20260508194128 65 132 0.0 0.0 0.00 0.00 0.00 39 1015.4
20260508194030 65 162 0.0 0.0 0.00 0.00 0.00 37 1015.5
20260508193928 66 208 0.0 0.0 0.00 0.00 0.00 37 1015.5
20260508193829 66 104 0.0 0.0 0.00 0.00 0.00 37 1015.5
20260508193718 66 148 0.0 0.0 0.00 0.00 0.00 37 1015.5
20260508193617 66 148 0.0 0.0 0.00 0.00 0.00 39 1015.6
20260508193519 66 128 0.0 0.0 0.00 0.00 0.00 39 1015.6
20260508193418 66 104 0.0 0.0 0.00 0.00 0.00 39 1015.5
20260508193319 66 147 0.0 0.0 0.00 0.00 0.00 37 1015.4
20260508193212 66 114 0.0 0.0 0.00 0.00 0.00 37 1015.4
20260508193111 66 163 0.0 0.0 0.00 0.00 0.00 38 1015.3
20260508193013 66 122 0.0 0.0 0.00 0.00 0.00 38 1015.5
20260508192911 66 153 0.0 0.0 0.00 0.00 0.00 39 1015.5
20260508192813 66 134 0.0 0.0 0.00 0.00 0.00 39 1015.4
20260508192707 66 110 0.0 0.0 0.00 0.00 0.00 38 1015.4
20260508192606 66 193 0.0 0.0 0.00 0.00 0.00 39 1015.5
20260508192507 66 85 0.0 0.0 0.00 0.00 0.00 38 1015.5
20260508192405 66 316 0.0 0.0 0.00 0.00 0.00 38 1015.6
20260508192307 66 153 0.0 0.0 0.00 0.00 0.00 40 1015.6
20260508192201 66 183 0.0 0.0 0.00 0.00 0.00 38 1015.6
20260508192059 66 76 0.0 0.0 0.00 0.00 0.00 38 1015.7
20260508192000 66 128 0.0 0.0 0.00 0.00 0.00 39 1015.7
20260508191858 66 152 0.0 0.9 0.00 0.00 0.00 40 1015.8
20260508191756 66 128 0.0 0.9 0.00 0.00 0.00 41 1015.7
20260508191653 66 162 0.0 0.9 0.00 0.00 0.00 41 1015.8
20260508191549 66 178 0.0 0.9 0.00 0.00 0.00 40 1015.8
20260508191451 65 156 0.0 0.9 0.00 0.00 0.00 41 1015.8
20260508191350 65 141 0.0 0.9 0.00 0.00 0.00 45 1015.8
20260508191251 65 105 0.0 0.9 0.00 0.00 0.00 42 1015.8
20260508191147 65 143 0.0 0.9 0.00 0.00 0.00 41 1015.7
20260508191046 65 122 0.0 0.9 0.00 0.00 0.00 40 1015.7
20260508190946 65 134 0.0 0.9 0.00 0.00 0.00 41 1015.7
20260508190846 65 111 0.0 0.9 0.00 0.00 0.00 41 1015.7
20260508190745 66 135 0.0 0.9 0.00 0.00 0.00 39 1015.8
20260508190636 66 155 0.0 0.9 0.00 0.00 0.00 40 1015.8
20260508190536 66 144 0.0 0.9 0.00 0.00 0.00 43 1015.7
20260508190436 66 173 0.0 0.9 0.00 0.00 0.00 41 1015.7
20260508190336 66 117 0.0 0.9 0.00 0.00 0.00 40 1015.8
20260508190234 66 127 0.0 3.5 0.00 0.00 0.00 39 1015.8
20260508190134 66 130 0.0 3.5 0.00 0.00 0.00 39 1015.8
20260508190034 66 134 0.9 4.3 0.00 0.00 0.00 41 1015.9
20260508185931 66 140 0.9 4.3 0.00 0.00 0.00 41 1015.9
20260508185829 66 163 0.9 6.1 0.00 0.00 0.00 41 1015.8
20260508185728 66 148 1.7 6.1 0.00 0.00 0.00 42 1015.9
20260508185622 66 162 1.7 6.1 0.00 0.00 0.00 44 1015.9
20260508185522 66 161 1.7 6.1 0.00 0.00 0.00 43 1015.8
20260508185422 65 169 1.7 6.1 0.00 0.00 0.00 45 1015.9
20260508185323 65 157 2.6 6.1 0.00 0.00 0.00 44 1015.9
20260508185223 65 175 2.6 6.1 0.00 0.00 0.00 40 1015.9
20260508185115 65 160 2.6 6.1 0.00 0.00 0.00 42 1015.9
20260508185017 65 140 2.6 6.1 0.00 0.00 0.00 44 1015.8
20260508184914 65 140 3.5 6.1 0.00 0.00 0.00 43 1015.9
20260508184815 64 135 3.5 7.8 0.00 0.00 0.00 43 1015.9
20260508184712 64 146 3.5 8.7 0.00 0.00 0.00 43 1016.0
20260508184606 64 51 3.5 8.7 0.00 0.00 0.00 42 1016.0
20260508184507 64 45 4.3 8.7 0.00 0.00 0.00 38 1015.9
20260508184406 64 94 4.3 8.7 0.00 0.00 0.00 39 1016.0
20260508184306 64 120 5.2 9.6 0.00 0.00 0.00 40 1016.0
20260508184206 64 128 5.2 9.6 0.00 0.00 0.00 39 1016.0
20260508184100 64 121 6.1 9.6 0.00 0.00 0.00 38 1016.0
20260508184001 64 111 6.1 10.4 0.00 0.00 0.00 39 1016.1
20260508183901 64 111 6.1 10.4 0.00 0.00 0.00 40 1016.0
20260508183800 64 117 6.1 10.4 0.00 0.00 0.00 39 1016.0
20260508183700 64 142 6.1 10.4 0.00 0.00 0.00 38 1016.0
20260508183551 65 151 6.1 10.4 0.00 0.00 0.00 38 1016.0
20260508183451 65 163 6.1 10.4 0.00 0.00 0.00 40 1016.0
20260508183350 65 114 6.1 10.4 0.00 0.00 0.00 40 1016.0
20260508183250 65 129 6.1 10.4 0.00 0.00 0.00 40 1016.0
20260508183150 65 141 5.2 10.4 0.00 0.00 0.00 41 1016.0
20260508183045 65 104 5.2 10.4 0.00 0.00 0.00 41 1016.0
20260508182946 65 133 4.3 10.4 0.00 0.00 0.00 38 1016.0
20260508182847 65 113 4.3 9.6 0.00 0.00 0.00 39 1016.1
20260508182747 65 140 4.3 9.6 0.00 0.00 0.00 38 1016.0
20260508182645 65 99 3.5 9.6 0.00 0.00 0.00 40 1016.1
20260508182539 65 110 2.6 9.6 0.00 0.00 0.00 38 1016.1
20260508182439 65 132 2.6 9.6 0.00 0.00 0.00 40 1016.1
20260508182338 65 146 2.6 9.6 0.00 0.00 0.00 38 1016.1
20260508182238 65 143 2.6 9.6 0.00 0.00 0.00 41 1016.1
20260508182138 65 130 1.7 7.0 0.00 0.00 0.00 39 1016.1
20260508182028 65 233 2.6 8.7 0.00 0.00 0.00 37 1016.1
20260508181927 65 171 2.6 8.7 0.00 0.00 0.00 39 1016.1
20260508181829 65 169 2.6 8.7 0.00 0.00 0.00 40 1016.1
20260508181729 65 121 2.6 8.7 0.00 0.00 0.00 39 1016.2
20260508181629 65 121 3.5 8.7 0.00 0.00 0.00 45 1016.1
20260508181523 65 92 3.5 8.7 0.00 0.00 0.00 44 1016.2
20260508181423 65 92 2.6 8.7 0.00 0.00 0.00 41 1016.1
20260508181324 64 72 3.5 8.7 0.00 0.00 0.00 39 1016.2
20260508181224 64 167 3.5 8.7 0.00 0.00 0.00 41 1016.2
20260508181123 64 179 3.5 8.7 0.00 0.00 0.00 40 1016.2
20260508181017 64 163 3.5 8.7 0.00 0.00 0.00 43 1016.2
20260508180915 64 99 3.5 7.8 0.00 0.00 0.00 42 1016.2
20260508180817 64 143 3.5 7.8 0.00 0.00 0.00 43 1016.1
20260508180717 64 96 3.5 7.8 0.00 0.00 0.00 39 1016.1
20260508180616 64 102 3.5 7.8 0.00 0.00 0.00 39 1016.2
20260508180507 64 126 3.5 7.8 0.00 0.00 0.00 38 1016.2
20260508180407 64 155 4.3 9.6 0.00 0.00 0.00 39 1016.3
20260508180307 64 141 4.3 11.3 0.00 0.00 0.00 40 1016.2
20260508180205 64 159 5.2 11.3 0.00 0.00 0.00 39 1016.3
20260508180106 64 180 5.2 11.3 0.00 0.00 0.00 44 1016.3
20260508175959 63 111 5.2 11.3 0.00 0.00 0.00 40 1016.3
20260508175900 63 160 6.1 11.3 0.00 0.00 0.00 40 1016.3
20260508175800 63 123 6.1 11.3 0.00 0.00 0.00 40 1016.4
20260508175700 63 101 6.1 11.3 0.00 0.00 0.00 41 1016.3
20260508175600 64 95 6.1 11.3 0.00 0.00 0.00 38 1016.4
20260508175453 64 81 6.1 11.3 0.00 0.00 0.00 39 1016.4
20260508175354 64 117 6.1 11.3 0.00 0.00 0.00 40 1016.4
20260508175255 64 120 6.1 9.6 0.00 0.00 0.00 39 1016.4
20260508175155 64 92 6.1 9.6 0.00 0.00 0.00 41 1016.4
20260508175054 64 87 6.1 9.6 0.00 0.00 0.00 40 1016.5
20260508174947 64 103 5.2 9.6 0.00 0.00 0.00 38 1016.5
20260508174843 64 80 5.2 9.6 0.00 0.00 0.00 36 1016.5
20260508174743 65 80 5.2 9.6 0.00 0.00 0.00 38 1016.5
20260508174644 65 104 5.2 9.6 0.00 0.00 0.00 38 1016.5
20260508174544 65 103 4.3 9.6 0.00 0.00 0.00 39 1016.4
20260508174438 65 103 4.3 8.7 0.00 0.00 0.00 43 1016.5
20260508174338 65 117 3.5 8.7 0.00 0.00 0.00 39 1016.5
20260508174239 65 93 3.5 8.7 0.00 0.00 0.00 39 1016.5
20260508174137 65 121 3.5 8.7 0.00 0.00 0.00 40 1016.5
20260508174038 65 125 3.5 8.7 0.00 0.00 0.00 37 1016.6
20260508173933 65 163 2.6 8.7 0.00 0.00 0.00 40 1016.6
20260508173831 65 163 3.5 8.7 0.00 0.00 0.00 39 1016.6
20260508173733 66 138 2.6 8.7 0.00 0.00 0.00 40 1016.6
20260508173631 66 105 2.6 7.8 0.00 0.00 0.00 41 1016.5
20260508173533 66 339 2.6 7.8 0.00 0.00 0.00 42 1016.6
20260508173428 65 264 2.6 7.8 0.00 0.00 0.00 40 1016.5
20260508173327 65 175 2.6 7.8 0.00 0.00 0.00 43 1016.6
20260508173223 65 159 3.5 7.8 0.00 0.00 0.00 41 1016.6
20260508173125 65 207 3.5 7.8 0.00 0.00 0.00 40 1016.6
20260508173022 65 250 3.5 7.8 0.00 0.00 0.00 40 1016.6
20260508172918 65 111 3.5 7.8 0.00 0.00 0.00 38 1016.6
20260508172815 65 136 2.6 7.8 0.00 0.00 0.00 38 1016.6
20260508172716 65 198 2.6 7.8 0.00 0.00 0.00 39 1016.7
20260508172616 65 128 2.6 7.8 0.00 0.00 0.00 40 1016.7
20260508172517 65 134 2.6 7.8 0.00 0.00 0.00 36 1016.7
20260508172409 65 185 2.6 7.8 0.00 0.00 0.00 42 1016.7
20260508172309 65 227 2.6 7.8 0.00 0.00 0.00 39 1016.9
20260508172211 65 198 2.6 6.1 0.00 0.00 0.00 39 1016.9
20260508172110 65 188 2.6 6.1 0.00 0.00 0.00 38 1016.7
20260508172011 65 132 2.6 6.1 0.00 0.00 0.00 39 1016.9
20260508171859 65 217 2.6 6.1 0.00 0.00 0.00 37 1016.9
20260508171801 65 196 2.6 6.1 0.00 0.00 0.00 40 1016.9
20260508171700 65 129 2.6 6.1 0.00 0.00 0.00 41 1016.7
20260508171559 65 101 3.5 7.8 0.00 0.00 0.00 38 1016.9
20260508171501 65 185 3.5 7.8 0.00 0.00 0.00 42 1016.7
20260508171357 65 131 3.5 7.8 0.00 0.00 0.00 38 1016.9
20260508171254 65 140 2.6 7.8 0.00 0.00 0.00 39 1016.9
20260508171155 64 110 2.6 7.8 0.00 0.00 0.00 42 1016.9
20260508171054 64 110 2.6 7.8 0.00 0.00 0.00 42 1017.0
20260508170954 64 110 3.5 7.8 0.00 0.00 0.00 40 1016.9
20260508170850 64 111 3.5 7.8 0.00 0.00 0.00 41 1016.9
20260508170748 64 110 3.5 7.8 0.00 0.00 0.00 41 1017.0
20260508170649 64 109 2.6 7.8 0.00 0.00 0.00 40 1017.0
20260508170547 64 109 2.6 7.0 0.00 0.00 0.00 44 1017.0
20260508170448 64 96 3.5 7.8 0.00 0.00 0.00 44 1016.9
20260508170342 64 115 3.5 8.7 0.00 0.00 0.00 41 1016.9
20260508170242 64 216 4.3 8.7 0.00 0.00 0.00 43 1017.0
20260508170139 64 170 3.5 8.7 0.00 0.00 0.00 41 1017.2
20260508170040 64 127 3.5 8.7 0.00 0.00 0.00 40 1017.0
20260508165939 64 116 3.5 8.7 0.00 0.00 0.00 41 1017.0
20260508165840 64 136 3.5 8.7 0.00 0.00 0.00 40 1017.1
20260508165740 64 165 2.6 8.7 0.00 0.00 0.00 41 1017.0
20260508165641 64 138 2.6 8.7 0.00 0.00 0.00 40 1017.0
20260508165540 64 140 2.6 8.7 0.00 0.00 0.00 43 1017.0
20260508165439 64 118 2.6 8.7 0.00 0.00 0.00 46 1017.0
20260508165340 64 105 2.6 8.7 0.00 0.00 0.00 44 1017.0
20260508165240 64 156 2.6 7.8 0.00 0.00 0.00 40 1017.0
20260508165139 64 141 2.6 6.1 0.00 0.00 0.00 44 1017.0
20260508165039 64 167 2.6 6.1 0.00 0.00 0.00 44 1017.1
20260508164941 64 120 3.5 7.8 0.00 0.00 0.00 43 1017.0
20260508164840 64 120 3.5 8.7 0.00 0.00 0.00 43 1017.0
20260508164743 64 121 4.3 8.7 0.00 0.00 0.00 41 1017.1
20260508164637 64 114 4.3 8.7 0.00 0.00 0.00 44 1017.0
20260508164535 64 113 3.5 8.7 0.00 0.00 0.00 42 1017.1
20260508164434 64 116 3.5 8.7 0.00 0.00 0.00 42 1017.1
20260508164334 64 174 2.6 8.7 0.00 0.00 0.00 43 1017.1
20260508164234 64 134 2.6 8.7 0.00 0.00 0.00 46 1017.1
20260508164128 64 149 3.5 8.7 0.00 0.00 0.00 44 1017.2
20260508164027 64 150 3.5 8.7 0.00 0.00 0.00 47 1017.1
20260508163929 63 126 2.6 8.7 0.00 0.00 0.00 46 1017.1
20260508163828 63 98 2.6 7.8 0.00 0.00 0.00 48 1017.1
20260508163729 63 105 2.6 6.1 0.00 0.00 0.00 49 1017.1
20260508163623 63 51 2.6 6.1 0.00 0.00 0.00 52 1017.1
20260508163523 63 24 2.6 6.1 0.00 0.00 0.00 47 1017.1
20260508163422 62 22 2.6 6.1 0.00 0.00 0.00 47 1017.1
20260508163323 62 20 3.5 6.1 0.00 0.00 0.00 48 1017.1
20260508163222 62 20 2.6 6.1 0.00 0.00 0.00 47 1017.1
20260508163122 62 19 2.6 6.1 0.00 0.00 0.00 47 1017.2
20260508163022 62 327 2.6 6.1 0.00 0.00 0.00 46 1017.3
20260508162919 62 327 2.6 6.1 0.00 0.00 0.00 45 1017.3
20260508162820 62 319 2.6 6.1 0.00 0.00 0.00 45 1017.3
20260508162719 62 323 2.6 6.1 0.00 0.00 0.00 44 1017.2
20260508162617 62 98 2.6 6.1 0.00 0.00 0.00 46 1017.4
20260508162515 62 121 2.6 6.1 0.00 0.00 0.00 46 1017.3
20260508162416 62 121 2.6 7.0 0.00 0.00 0.00 47 1017.4
20260508162313 62 117 2.6 7.0 0.00 0.00 0.00 47 1017.4
20260508162213 62 113 2.6 7.0 0.00 0.00 0.00 45 1017.4
20260508162115 62 113 2.6 7.0 0.00 0.00 0.00 47 1017.4
20260508162014 62 113 3.5 7.0 0.00 0.00 0.00 46 1017.4
20260508161913 62 113 3.5 7.0 0.00 0.00 0.00 46 1017.4
20260508161815 62 113 3.5 7.0 0.00 0.00 0.00 48 1017.6
20260508161713 62 124 3.5 7.0 0.00 0.00 0.00 48 1017.6
20260508161612 62 125 3.5 7.0 0.00 0.00 0.00 46 1017.5
20260508161511 62 125 4.3 7.0 0.00 0.00 0.00 46 1017.6
20260508161412 62 142 3.5 7.0 0.00 0.00 0.00 50 1017.7
20260508161311 62 149 3.5 7.0 0.00 0.00 0.00 51 1017.7
20260508161213 62 78 3.5 7.0 0.00 0.00 0.00 51 1017.7
20260508161109 62 61 3.5 7.0 0.00 0.00 0.00 49 1017.7
20260508161010 62 95 3.5 7.0 0.00 0.00 0.00 48 1017.7
20260508160909 62 108 3.5 7.0 0.00 0.00 0.00 48 1017.7
20260508160810 62 97 2.6 7.0 0.00 0.00 0.00 51 1017.7
20260508160711 62 122 2.6 6.1 0.00 0.00 0.00 49 1017.8
20260508160609 62 132 1.7 6.1 0.00 0.00 0.00 50 1017.8
20260508160509 62 47 1.7 4.3 0.00 0.00 0.00 49 1017.8
20260508160412 62 331 1.7 4.3 0.00 0.00 0.00 46 1017.7
20260508160310 62 324 1.7 4.3 0.00 0.00 0.00 46 1017.8
20260508160206 62 324 2.6 4.3 0.00 0.00 0.00 47 1017.8
20260508160103 62 325 2.6 4.3 0.00 0.00 0.00 50 1017.8
20260508160004 62 355 2.6 5.2 0.00 0.00 0.00 48 1017.9
20260508155904 62 46 2.6 5.2 0.00 0.00 0.00 50 1017.9
20260508155804 62 71 2.6 5.2 0.00 0.00 0.00 48 1017.9
20260508155659 62 270 2.6 5.2 0.00 0.00 0.00 47 1017.8
20260508155600 62 310 2.6 5.2 0.00 0.00 0.00 48 1017.9
20260508155459 62 54 2.6 5.2 0.00 0.00 0.00 47 1017.8
20260508155400 62 53 1.7 5.2 0.00 0.00 0.00 50 1017.9
20260508155300 62 40 1.7 5.2 0.00 0.00 0.00 50 1017.8
20260508155200 62 44 1.7 5.2 0.00 0.00 0.00 50 1017.9
20260508155059 62 48 1.7 5.2 0.00 0.00 0.00 50 1017.9
20260508155001 61 88 1.7 4.3 0.00 0.00 0.00 50 1017.9
20260508154859 61 89 1.7 4.3 0.00 0.00 0.00 48 1017.8
20260508154800 61 61 1.7 4.3 0.00 0.00 0.00 49 1018.0
20260508154659 61 56 1.7 4.3 0.00 0.00 0.00 47 1017.9
20260508154559 61 5 1.7 4.3 0.00 0.00 0.00 47 1017.8
20260508154459 61 340 1.7 4.3 0.00 0.00 0.00 47 1017.8
20260508154400 61 340 1.7 7.0 0.00 0.00 0.00 47 1017.9
20260508154300 61 342 2.6 7.0 0.00 0.00 0.00 47 1017.9
20260508154200 61 344 2.6 7.0 0.00 0.00 0.00 48 1018.0
20260508154101 61 311 2.6 7.0 0.00 0.00 0.00 49 1018.0
20260508153959 61 46 2.6 7.0 0.00 0.00 0.00 49 1017.9
20260508153901 61 46 2.6 7.0 0.00 0.00 0.00 51 1017.9
20260508153800 61 78 2.6 7.0 0.00 0.00 0.00 49 1018.0
20260508153700 61 60 2.6 7.0 0.00 0.00 0.00 50 1018.0
20260508153559 61 265 2.6 7.0 0.00 0.00 0.00 47 1018.0
20260508153459 61 289 3.5 7.0 0.00 0.00 0.00 48 1018.0
20260508153400 61 5 2.6 7.0 0.00 0.00 0.00 48 1018.0
20260508153300 61 342 2.6 7.0 0.00 0.00 0.00 47 1017.9
20260508153200 61 309 2.6 7.0 0.00 0.00 0.00 48 1018.0
20260508153056 61 294 3.5 7.0 0.00 0.00 0.00 49 1018.0
20260508152955 61 355 3.5 7.0 0.00 0.00 0.00 50 1017.9
20260508152855 61 13 3.5 7.0 0.00 0.00 0.00 48 1017.9
20260508152756 61 311 3.5 7.0 0.00 0.00 0.00 48 1018.0
20260508152655 61 344 3.5 7.0 0.00 0.00 0.00 46 1018.0
20260508152556 61 327 3.5 7.0 0.00 0.00 0.00 47 1018.0
20260508152457 61 0 2.6 7.0 0.00 0.00 0.00 47 1018.0
20260508152355 62 331 2.6 7.0 0.00 0.00 0.00 49 1018.0
20260508152255 62 325 2.6 7.0 0.00 0.00 0.00 48 1018.1
20260508152155 62 343 2.6 7.0 0.00 0.00 0.00 49 1018.1
20260508152056 62 52 2.6 7.0 0.00 0.00 0.00 46 1018.1
20260508151955 62 74 1.7 7.0 0.00 0.00 0.00 46 1018.1
20260508151856 62 74 1.7 7.0 0.00 0.00 0.00 45 1018.1
20260508151756 62 75 1.7 4.3 0.00 0.00 0.00 50 1018.1
20260508151655 62 330 1.7 4.3 0.00 0.00 0.00 48 1018.2
20260508151556 62 76 1.7 5.2 0.00 0.00 0.00 49 1018.1
20260508151457 62 45 1.7 5.2 0.00 0.00 0.00 49 1018.1
20260508151355 62 38 1.7 5.2 0.00 0.00 0.00 48 1018.1
20260508151255 62 9 1.7 5.2 0.00 0.00 0.00 49 1018.2
20260508151156 62 5 1.7 5.2 0.00 0.00 0.00 47 1018.1
20260508151056 61 9 2.6 5.2 0.00 0.00 0.00 46 1018.1
20260508150956 61 13 2.6 5.2 0.00 0.00 0.00 47 1018.1
20260508150855 62 23 1.7 5.2 0.00 0.00 0.00 48 1018.1
20260508150755 62 32 1.7 5.2 0.00 0.00 0.00 46 1018.1
20260508150655 62 34 1.7 5.2 0.00 0.00 0.00 51 1018.1
20260508150557 61 355 1.7 4.3 0.00 0.00 0.00 52 1018.1
20260508150455 61 355 1.7 4.3 0.00 0.00 0.00 49 1018.1
20260508150356 61 355 1.7 4.3 0.00 0.00 0.00 47 1018.1
20260508150256 61 38 1.7 4.3 0.00 0.00 0.00 48 1018.1
20260508150156 61 24 1.7 4.3 0.00 0.00 0.00 49 1018.2
20260508150056 61 28 1.7 4.3 0.00 0.00 0.00 48 1018.2
20260508145957 61 5 1.7 3.5 0.00 0.00 0.00 48 1018.1
20260508145856 61 328 0.9 3.5 0.00 0.00 0.00 49 1018.1
20260508145752 61 292 0.9 3.5 0.00 0.00 0.00 50 1018.2
20260508145652 61 286 0.9 3.5 0.00 0.00 0.00 51 1018.2
20260508145551 61 286 0.9 3.5 0.00 0.00 0.00 49 1018.1
20260508145452 61 286 0.9 3.5 0.00 0.00 0.00 49 1018.1
20260508145352 60 54 0.9 3.5 0.00 0.00 0.00 48 1018.2
20260508145253 60 55 0.9 3.5 0.00 0.00 0.00 48 1018.2
20260508145153 60 76 0.9 3.5 0.00 0.00 0.00 49 1018.1
20260508145052 60 127 0.9 3.5 0.00 0.00 0.00 50 1018.1
20260508144951 60 336 0.9 3.5 0.00 0.00 0.00 50 1018.2
20260508144853 59 336 0.9 3.5 0.00 0.00 0.00 50 1018.2
20260508144752 59 332 1.7 3.5 0.00 0.00 0.00 46 1018.2
20260508144652 59 212 1.7 3.5 0.00 0.00 0.00 48 1018.2
20260508144551 59 213 1.7 5.2 0.00 0.00 0.00 49 1018.2
20260508144451 59 213 1.7 7.8 0.00 0.00 0.00 49 1018.2
20260508144352 58 296 1.7 7.8 0.00 0.00 0.00 50 1018.1
20260508144253 58 223 1.7 7.8 0.00 0.00 0.00 50 1018.2
20260508144151 58 221 2.6 7.8 0.00 0.00 0.00 54 1018.1
20260508144053 58 12 2.6 7.8 0.00 0.00 0.00 55 1018.2
20260508143953 58 332 2.6 7.8 0.00 0.00 0.00 52 1018.1